GFSNGP_250_spd_006.txt.gz
Wind_Speed
14 16 17 20 22 24 27 29 31 32 34 36 42 45 51 55 55 55 55 58 62 61 63 63 62 63 65 69 74 79 84 89 96 103 108 114 125 128 129 124 124 123 118 111
17 18 20 24 28 29 31 34 36 35 39 43 47 49 53 59 60 60 60 63 66 69 68 65 64 66 70 75 81 86 92 96 104 110 115 121 129 131 124 123 121 115 109 99
23 24 24 30 31 32 35 39 38 38 44 49 51 55 60 65 65 67 69 72 74 76 74 68 68 71 77 84 89 93 97 103 110 114 119 128 131 125 122 121 116 108 97 93
28 29 26 35 38 37 38 38 39 45 48 50 56 61 65 67 69 70 71 76 79 79 76 73 76 79 85 90 93 98 103 109 114 118 125 130 126 123 121 117 110 100 92 87
29 32 32 36 41 42 38 39 47 49 54 57 61 64 69 70 73 74 75 80 83 81 79 80 82 86 91 94 99 103 110 114 121 125 127 126 124 122 117 111 102 96 89 84
36 36 36 39 44 44 43 42 52 56 60 63 65 67 71 76 77 77 79 85 85 81 82 84 87 91 96 99 104 109 113 123 125 127 123 122 122 118 112 105 98 90 84 78
41 40 38 43 45 46 48 51 56 61 67 69 71 73 76 80 79 80 84 86 82 83 86 89 93 97 100 104 109 114 121 124 124 121 120 121 118 114 106 100 93 85 78 73
44 45 42 44 46 50 56 59 61 66 70 72 75 78 78 79 82 85 88 85 85 89 91 94 97 100 105 109 115 120 123 124 121 119 120 119 114 110 102 96 88 80 73 70
49 49 49 48 53 58 63 65 69 71 74 76 80 81 80 83 86 87 86 87 90 92 96 99 103 105 109 114 119 121 123 121 118 117 117 114 111 104 97 91 82 75 70 67
50 53 56 58 61 66 66 69 73 76 78 80 82 81 85 86 87 87 89 91 93 97 100 104 108 111 114 118 121 120 119 116 114 114 114 112 107 98 91 84 76 71 68 64
56 60 60 65 69 69 71 75 79 81 81 83 83 87 87 89 89 89 92 95 98 101 105 109 113 117 117 120 119 116 116 115 113 113 111 108 101 93 85 77 72 69 65 61
61 65 66 70 72 75 78 82 84 84 83 85 87 88 89 89 91 94 97 99 103 108 111 115 117 117 118 117 113 113 114 113 112 109 105 101 95 88 79 73 71 66 61 58
69 71 72 74 77 80 84 84 82 84 87 86 87 88 90 93 95 98 102 105 110 114 115 116 118 116 116 111 111 111 112 111 108 104 99 93 87 82 74 70 66 63 59 56
78 78 79 81 81 82 83 84 86 86 86 88 90 92 96 98 101 104 108 112 114 113 115 116 114 113 110 110 110 111 109 107 103 98 92 86 81 75 72 68 63 60 57 54
81 82 80 79 80 82 83 83 86 89 92 94 96 97 101 105 109 112 114 114 116 116 114 112 111 111 110 109 109 106 104 100 97 91 85 82 76 71 69 64 61 57 53 51
78 80 82 82 82 83 86 88 91 93 96 98 103 107 110 112 114 114 116 117 116 114 110 110 110 109 109 107 104 102 99 95 90 84 80 76 72 69 66 62 58 54 50 48
80 81 83 85 88 91 93 95 98 101 104 106 109 111 113 114 115 117 118 116 111 108 109 110 110 108 104 101 99 97 92 87 83 79 75 71 70 67 63 59 55 51 48 47
86 90 91 93 96 98 100 102 106 107 109 111 112 114 116 118 117 114 112 110 109 110 111 109 105 102 99 96 95 92 86 80 78 75 71 68 67 63 60 56 53 51 48 46
95 97 99 102 104 105 107 109 109 109 114 116 117 116 112 109 110 108 107 110 109 108 106 100 99 97 94 93 90 87 81 76 74 71 67 65 63 59 56 54 52 51 49 47
101 102 105 109 110 112 115 115 114 115 113 111 110 110 109 106 106 105 105 107 104 97 96 94 94 92 89 87 84 80 77 73 70 69 65 62 59 56 54 52 51 50 49 48
106 109 111 111 111 112 112 109 107 106 107 106 108 110 108 107 107 105 103 96 96 93 92 92 89 86 84 81 78 76 74 70 66 65 63 59 57 54 53 51 50 50 49 47
110 110 107 106 104 104 105 107 108 109 110 111 108 103 101 99 96 93 92 91 90 90 88 88 85 83 80 77 75 72 70 68 65 62 60 57 54 52 51 50 49 50 49 46
105 105 105 106 106 106 107 108 107 104 99 95 94 93 91 90 90 90 88 90 88 85 84 82 80 78 76 73 71 69 68 65 63 60 57 54 51 51 50 50 49 48 47 46
107 107 108 110 109 107 103 96 91 88 89 90 90 91 90 88 87 89 87 83 80 79 78 75 74 73 72 70 68 67 66 63 61 58 56 52 50 49 48 49 48 47 45 43
112 110 107 102 97 94 93 91 90 89 89 89 90 90 89 87 83 80 81 80 77 74 73 71 71 69 68 67 65 64 63 61 59 56 54 52 50 49 48 46 47 44 43 42
99 98 97 96 94 91 88 87 85 86 86 85 85 86 85 83 80 76 74 72 71 70 69 68 68 66 65 64 63 60 60 58 56 55 53 52 49 47 47 47 45 43 42 41
95 93 91 88 86 83 82 81 81 81 81 79 76 78 76 76 75 73 71 69 67 66 65 64 63 63 62 61 59 58 56 55 54 53 51 49 47 46 45 44 43 42 40 39

GFSNGP_250_spd_009.txt.gz
Wind_Speed
12 11 11 12 15 18 21 25 26 28 32 31 34 36 41 45 45 49 55 60 62 66 70 71 71 72 77 75 72 74 77 80 85 88 95 98 103 110 115 116 117 118 117 115
16 15 16 19 23 25 27 30 30 32 38 36 35 40 46 49 52 56 61 64 66 69 74 74 75 77 80 79 78 81 83 86 91 96 101 105 110 114 117 118 118 115 112 106
18 18 19 24 31 30 32 33 35 38 41 38 39 44 51 54 58 63 66 69 72 74 77 77 79 81 82 82 83 85 89 93 98 102 107 111 113 117 118 116 115 112 106 99
23 25 23 32 36 36 34 38 40 43 40 40 45 50 56 60 64 69 71 73 77 79 79 81 83 84 85 84 86 89 95 99 104 108 111 113 115 116 113 112 111 108 101 94
26 29 29 34 38 41 42 42 45 42 44 45 50 55 61 63 69 72 75 78 80 83 82 85 87 87 87 88 91 95 100 105 109 111 112 113 115 111 111 111 108 104 97 92
32 31 32 37 42 43 44 43 47 49 49 53 57 61 66 68 72 76 79 82 85 85 86 89 89 88 91 93 96 100 105 110 113 112 113 113 109 108 110 108 105 100 95 89
36 35 36 41 43 45 47 48 49 51 55 60 63 68 71 73 77 82 85 86 85 88 90 90 89 91 93 97 101 106 110 112 112 112 110 109 108 108 108 105 103 97 91 84
39 41 42 45 46 48 50 51 54 57 60 63 68 72 73 77 83 86 86 86 90 90 90 91 92 95 98 102 107 110 111 111 112 108 107 107 108 107 105 105 100 94 86 79
47 49 49 49 49 52 55 58 61 64 67 71 73 75 78 83 87 86 87 90 87 90 92 93 95 99 103 107 110 111 112 110 104 104 105 106 106 105 104 102 96 88 81 74
49 53 53 54 56 60 61 64 68 71 73 76 79 82 85 87 86 88 87 88 91 92 95 99 102 105 108 110 112 112 108 102 101 105 107 105 105 103 102 97 90 83 75 70
49 54 57 62 65 66 68 72 74 76 80 84 85 85 84 85 86 87 89 93 95 98 102 106 109 110 110 110 107 104 102 101 104 105 105 105 103 101 97 91 83 77 70 67
56 61 61 65 68 71 74 78 82 84 84 83 83 84 86 87 89 93 95 98 101 105 109 111 112 110 108 104 104 103 104 105 104 104 103 102 100 98 91 83 78 72 68 64
63 66 68 70 72 76 80 81 81 80 80 81 82 84 87 91 95 99 102 104 107 109 108 110 109 107 105 104 104 105 105 104 103 103 102 100 98 91 83 77 73 67 65 61
70 71 73 75 78 81 81 80 80 81 80 83 87 92 94 98 102 106 108 108 111 112 110 109 109 107 106 106 106 107 106 103 102 101 99 98 91 83 76 73 68 64 61 59
76 77 78 79 79 81 81 81 82 84 88 92 95 98 101 104 108 109 110 113 113 112 112 111 112 113 114 112 109 106 103 102 99 97 95 91 84 76 72 68 64 61 58 56
81 83 82 82 81 82 83 86 89 92 95 98 101 104 107 109 111 112 110 109 110 110 112 113 114 114 110 105 102 101 101 99 95 93 88 82 77 73 69 64 61 58 55 53
83 84 85 85 85 87 91 94 96 99 101 105 110 110 110 112 110 108 107 110 114 116 114 114 110 104 101 101 99 98 97 94 91 86 80 76 73 70 66 61 59 56 53 50
87 86 85 87 91 95 97 99 103 105 109 110 109 109 108 107 108 110 112 115 116 115 110 103 99 99 98 97 96 95 92 86 83 79 74 71 69 67 63 59 57 54 51 47
88 89 93 96 98 100 103 107 109 111 112 111 112 113 113 113 114 116 118 117 111 102 101 102 102 100 98 96 91 90 85 81 77 73 70 68 66 63 60 57 54 51 48 45
93 97 99 101 104 105 109 111 110 110 113 115 115 114 116 116 116 113 107 104 105 103 103 101 99 96 92 88 84 81 78 75 71 70 68 65 63 59 57 55 53 49 46 44
98 102 106 106 109 110 110 113 113 114 114 115 117 118 116 110 104 103 104 102 103 101 97 94 91 86 84 81 78 76 73 70 68 66 65 61 59 56 54 52 50 48 46 44
105 109 111 110 110 114 115 113 113 115 116 117 116 108 105 104 101 100 100 96 93 92 89 86 84 82 80 77 74 71 69 68 65 63 61 57 54 53 51 50 49 47 45 43
112 111 110 113 115 112 111 112 111 112 106 103 102 100 96 94 93 93 91 92 88 86 83 81 79 77 75 72 70 68 67 65 62 59 57 54 52 50 49 48 48 46 44 43
109 111 112 110 111 113 111 105 101 101 97 95 95 92 89 87 88 89 87 84 82 79 76 73 72 71 70 69 68 67 64 62 59 56 54 52 50 50 49 47 45 44 42 41
106 110 111 110 107 103 101 100 97 93 90 88 88 88 88 87 83 79 77 75 74 73 72 71 69 67 67 65 63 62 61 58 55 54 52 50 49 48 47 45 43 42 42 40
108 105 102 100 97 95 91 88 86 84 83 83 84 83 81 80 79 78 77 74 70 68 67 66 65 64 63 61 59 57 56 55 54 52 50 49 48 46 45 44 43 40 39 38
95 93 92 88 86 85 84 82 81 81 80 78 75 75 74 73 73 72 71 70 69 66 64 63 62 60 58 56 55 54 53 53 52 51 49 47 45 44 43 42 42 40 38 37

GFSNGP_250_spd_015.txt.gz
Wind_Speed
25 25 22 21 22 23 23 23 24 27 28 28 30 34 37 39 42 46 48 50 49 50 54 62 66 70 74 78 81 83 85 87 86 88 88 92 96 100 103 106 109 110 108 107
27 26 24 24 26 25 26 26 28 29 32 33 37 38 40 40 44 46 48 51 53 56 62 66 70 73 77 81 84 85 85 86 88 90 94 98 102 105 109 109 109 104 105 107
30 28 27 28 29 27 29 32 32 33 37 39 43 43 42 45 46 48 51 55 59 61 64 68 73 78 82 84 84 84 85 86 89 94 98 102 105 108 108 103 100 104 108 109
33 31 30 34 33 32 33 35 37 39 43 43 44 44 46 48 49 53 58 62 61 65 71 75 80 82 84 81 82 84 88 91 95 99 103 108 107 104 100 101 104 108 108 106
34 36 36 36 37 38 38 41 41 45 46 47 47 50 53 52 56 61 64 63 68 72 76 80 84 82 82 84 85 88 92 98 99 104 106 103 101 101 103 106 109 106 102 97
36 37 38 39 39 40 43 43 45 49 49 52 54 56 59 61 63 65 66 69 73 77 80 83 83 83 83 86 90 94 98 101 105 108 105 102 100 105 108 106 104 101 96 98
37 38 39 40 42 42 44 47 48 51 53 55 57 59 59 64 67 68 70 74 78 82 85 86 83 85 87 91 95 98 102 105 105 103 104 103 107 108 108 104 102 97 98 100
40 41 41 41 43 46 47 50 53 54 54 54 56 61 66 69 72 74 77 79 83 86 87 87 89 89 92 98 101 106 109 108 105 104 105 106 107 108 108 103 100 101 103 101
42 42 42 43 47 49 52 54 54 54 56 58 63 67 69 71 75 80 80 83 87 88 89 91 90 93 98 102 104 107 105 105 104 107 111 114 112 108 107 107 107 104 100 96
43 45 47 49 52 53 53 54 56 59 63 66 70 73 76 77 81 82 84 89 91 91 92 93 94 99 101 107 108 105 107 105 107 112 116 115 112 112 111 107 103 97 95 92
48 50 50 52 51 55 56 58 60 67 70 73 76 78 80 84 84 86 92 93 92 94 95 97 100 104 108 108 104 105 105 108 110 113 115 114 111 107 105 101 96 91 88 85
46 47 52 55 55 59 60 64 70 74 77 78 82 86 87 87 89 95 93 93 95 96 99 102 106 108 108 106 107 106 109 112 113 115 114 110 108 104 99 94 91 86 81 78
53 57 60 61 60 64 67 71 75 79 83 84 86 88 89 92 95 92 95 96 98 103 105 107 110 108 109 107 109 110 113 114 111 111 108 104 98 93 88 86 84 81 77 74
61 64 64 68 67 71 74 78 81 84 87 90 91 93 96 93 95 96 98 102 106 107 110 111 110 108 108 108 109 112 113 114 108 104 102 97 91 87 85 83 80 76 73 70
67 70 72 72 75 79 81 83 86 89 90 92 94 92 93 96 97 100 105 108 110 112 110 108 105 105 110 110 113 111 110 112 107 100 96 93 90 87 83 79 74 70 68 66
72 73 75 78 81 83 85 87 89 92 91 90 92 94 96 99 103 106 111 112 112 110 109 108 112 113 112 110 108 108 106 104 102 99 95 91 85 80 76 74 71 67 65 62
71 75 79 82 83 85 87 92 92 91 93 95 96 99 102 106 109 112 113 117 115 113 111 110 110 109 110 108 105 104 102 100 94 90 87 83 78 75 72 71 68 64 62 60
78 81 82 84 86 89 92 92 94 96 98 100 103 107 109 111 115 117 115 114 110 109 109 110 109 107 106 105 103 99 94 90 86 83 81 77 75 72 70 67 64 62 59 57
83 84 86 88 91 91 93 95 98 101 104 108 110 112 114 117 116 114 112 112 110 109 112 108 107 106 104 102 95 89 86 84 80 78 76 72 70 68 67 65 61 58 56 54
86 88 91 91 92 94 98 101 104 108 111 113 115 117 118 113 112 111 113 109 112 111 108 105 101 99 96 91 87 83 81 78 75 72 69 68 66 64 63 60 58 55 53 52
89 89 91 94 96 100 102 106 110 113 115 117 117 114 112 113 112 110 109 109 109 105 103 101 99 93 87 84 81 78 75 73 73 70 68 63 61 59 57 55 53 52 51 50
90 93 96 99 101 104 108 111 112 114 114 113 113 111 112 112 109 109 106 102 101 100 99 95 90 86 82 80 76 75 73 70 67 66 64 60 57 55 55 54 53 51 50 49
96 99 102 103 107 109 111 113 112 112 111 110 111 111 108 107 106 104 103 101 99 96 91 86 82 80 77 74 72 70 69 66 63 60 60 57 55 56 54 53 52 50 49 48
102 104 107 108 109 111 111 109 110 109 110 109 109 107 106 104 102 99 97 93 89 85 81 78 76 73 71 69 66 64 61 60 59 58 59 58 54 53 52 50 49 48 47 45
106 108 111 111 110 109 109 109 109 108 108 108 106 103 100 98 96 92 87 84 81 78 75 73 71 69 66 64 62 60 59 58 57 56 55 54 54 52 50 49 47 46 44 43
109 110 107 106 108 108 108 106 106 106 105 103 100 98 97 92 87 83 81 79 76 74 71 70 67 66 63 62 60 58 57 56 55 53 52 50 49 48 48 47 46 44 43 41
105 106 106 106 106 104 103 103 103 102 99 97 96 91 86 83 81 79 76 74 72 70 68 66 64 63 62 60 59 57 56 55 54 51 49 48 47 46 46 46 45 44 42 41

GFSNGP_250_spd_021.txt.gz
Wind_Speed
27 28 25 26 27 28 29 31 25 27 26 25 26 28 31 33 37 40 45 45 42 44 47 48 50 55 59 62 65 69 73 77 80 84 90 91 94 98 97 98 98 104 108 109
29 28 26 28 30 31 31 28 28 26 26 29 28 32 35 37 36 38 44 53 53 51 52 56 57 58 61 66 68 74 80 84 87 91 92 96 99 98 99 101 106 110 111 107
29 29 30 30 33 28 28 27 27 29 29 32 33 35 38 42 46 48 49 53 58 60 60 60 60 64 69 71 75 80 85 89 93 95 97 100 100 101 103 109 111 110 108 106
28 28 28 32 30 29 30 29 29 31 33 37 40 41 44 46 49 51 52 54 57 63 66 67 69 72 74 76 81 86 90 93 95 97 99 99 102 106 110 112 111 109 108 107
29 29 30 31 32 31 33 32 35 38 39 41 47 47 49 52 52 54 56 57 60 64 67 71 75 78 81 84 89 92 94 97 98 97 98 101 108 111 113 113 112 109 108 106
30 30 31 31 35 36 35 35 41 43 46 47 50 53 54 55 55 57 62 65 67 70 70 74 77 82 87 91 94 95 99 100 97 99 103 110 113 115 114 113 111 111 110 109
29 33 35 33 37 36 38 40 44 47 47 50 53 56 58 58 59 61 67 68 68 72 74 77 82 86 90 94 95 98 102 99 100 104 110 114 116 115 113 113 112 112 110 108
31 33 38 39 40 41 41 42 46 47 49 53 56 59 59 59 60 61 66 73 75 77 80 85 89 93 95 95 98 104 100 102 106 112 116 118 117 115 113 112 110 110 107 103
33 34 37 37 38 41 42 47 47 49 52 54 57 57 58 60 61 65 72 76 80 83 86 91 94 95 95 99 104 102 103 107 111 117 119 119 114 113 113 112 109 107 103 98
37 38 38 37 41 43 47 51 52 52 55 56 57 58 61 64 68 73 77 81 84 89 92 94 96 97 100 104 101 103 107 111 117 120 120 115 113 112 111 111 108 103 99 94
43 42 40 41 43 46 49 53 53 55 57 59 60 63 67 72 77 80 83 86 89 91 95 97 98 100 104 100 104 107 112 116 120 121 115 114 113 112 110 107 105 101 96 89
42 44 43 44 47 50 52 55 55 58 60 61 65 70 74 78 82 86 89 90 92 94 96 98 101 103 101 104 109 113 117 120 123 117 116 112 111 108 106 104 101 97 91 84
49 48 49 51 53 55 57 58 59 60 63 67 72 77 80 84 87 90 91 94 95 96 98 103 102 102 105 110 115 118 119 123 118 117 113 110 109 106 101 98 93 87 84 82
55 54 55 56 59 60 60 61 63 66 71 75 79 82 85 87 89 91 94 96 97 99 104 103 104 107 111 115 118 118 121 118 116 113 111 110 107 100 93 86 83 83 82 75
58 60 60 61 62 63 64 67 71 75 79 81 83 85 89 91 92 95 97 99 101 104 102 106 109 113 117 119 120 121 117 115 113 111 109 106 100 94 86 82 79 78 76 73
61 64 65 65 65 68 71 75 77 80 82 85 87 90 91 93 95 97 100 103 103 103 107 111 114 116 120 121 122 118 115 113 111 109 106 97 90 85 81 78 76 75 73 68
65 68 69 70 72 74 76 79 82 84 85 87 90 92 94 97 99 102 102 101 103 108 112 115 117 122 123 122 117 115 113 111 109 102 95 88 83 80 77 73 69 70 66 64
68 70 72 73 74 75 76 79 82 84 87 89 92 95 99 101 100 100 102 106 109 114 115 118 121 122 119 116 115 113 109 105 100 93 88 84 81 76 73 69 66 66 65 60
66 66 67 71 74 77 81 83 85 86 89 93 97 98 97 98 100 104 107 111 114 116 120 121 122 119 118 117 113 110 105 98 93 87 83 79 75 74 70 67 63 61 64 63
68 71 73 76 79 80 82 85 89 92 93 94 95 96 99 103 106 109 112 113 116 120 120 120 118 116 114 110 107 101 96 92 87 82 79 75 73 70 68 65 63 60 60 60
73 75 78 80 84 87 88 90 91 92 94 96 99 102 105 108 111 112 115 118 120 122 120 118 116 112 108 106 100 95 90 86 82 78 74 72 70 68 65 64 64 63 61 58
79 82 85 86 86 88 89 91 93 96 98 101 105 107 110 111 114 116 117 119 119 118 114 111 109 106 101 97 93 87 83 80 76 74 71 68 66 64 64 63 61 61 60 56
81 83 84 87 90 92 94 96 98 102 104 106 109 110 112 114 116 118 118 117 115 113 110 108 106 100 95 89 85 80 77 76 73 71 67 65 64 62 61 60 58 55 54 52
83 86 89 91 94 97 100 102 104 106 107 107 110 111 113 117 118 115 113 110 109 108 106 100 96 91 87 82 79 77 74 73 70 67 65 64 61 60 58 56 54 51 48 47
90 93 95 98 101 103 105 105 105 106 108 111 111 111 112 112 112 109 107 107 107 104 97 92 88 85 82 79 77 74 72 68 67 66 64 62 60 57 54 51 50 48 46 44
98 100 101 103 105 105 105 105 106 107 109 109 108 107 107 108 106 105 104 102 98 92 89 87 84 81 79 76 74 70 68 66 65 62 61 59 56 53 50 47 46 44 43 43
100 102 103 103 102 102 104 105 105 106 106 106 106 104 102 101 101 99 97 94 92 89 86 84 81 78 76 72 69 66 65 63 61 59 57 55 52 49 47 45 43 43 42 41

GFSNGP_250_spd_024.txt.gz
Wind_Speed
23 22 22 24 27 28 29 30 32 29 31 23 21 22 23 27 30 31 33 34 34 38 42 45 49 50 52 56 61 62 64 67 70 74 80 85 88 92 94 97 93 93 99 103
25 25 23 26 28 30 30 30 32 31 27 21 19 24 30 33 32 35 38 41 43 46 47 49 50 53 57 62 63 64 68 72 77 82 86 90 91 92 99 96 96 98 103 107
26 26 26 27 34 30 31 31 27 26 25 27 29 30 32 35 38 42 44 47 50 52 52 54 57 59 65 66 67 70 73 78 82 87 91 90 92 98 96 98 103 105 109 112
27 26 27 32 30 32 31 29 24 27 29 32 32 33 36 40 44 47 51 54 56 56 58 60 64 67 69 70 72 76 80 84 89 92 93 94 99 97 98 103 106 109 114 111
24 26 29 31 31 29 28 26 27 30 32 35 37 40 42 44 48 52 55 58 58 59 61 64 67 70 73 77 80 83 87 91 94 95 96 101 99 95 102 106 110 114 113 110
28 29 28 31 31 28 27 28 31 34 37 39 42 45 47 48 52 55 58 59 60 60 62 67 70 73 78 83 85 89 92 94 97 98 102 100 102 109 111 113 115 115 111 112
37 32 30 33 30 30 30 32 36 39 40 43 45 47 49 51 55 59 60 61 62 64 67 70 73 78 83 87 91 93 95 96 96 102 102 101 105 110 114 117 117 115 113 113
40 36 34 33 32 33 36 38 40 42 44 46 47 49 52 55 58 60 63 64 66 69 73 76 80 84 89 93 94 96 96 98 101 102 102 106 110 114 119 119 119 114 114 113
41 38 36 35 36 37 40 43 44 45 46 48 50 53 56 59 60 63 63 67 69 73 78 83 87 90 93 94 97 98 99 102 102 102 106 108 112 118 121 120 116 116 112 108
43 42 40 40 40 42 44 45 47 48 50 53 55 57 58 61 64 65 68 70 74 79 83 87 91 93 95 97 98 99 101 101 101 105 108 112 116 119 119 117 117 114 110 105
45 46 46 45 45 46 47 48 50 51 53 55 58 60 63 66 67 69 71 76 80 84 88 91 93 96 97 98 99 102 100 101 105 108 111 115 117 120 118 117 114 110 106 100
48 48 49 50 51 51 51 51 51 53 56 60 63 65 68 69 71 74 78 82 85 89 92 94 96 96 97 100 101 99 102 105 108 110 115 116 118 117 117 112 109 105 99 93
51 51 52 54 55 55 55 56 58 61 64 65 66 68 70 73 77 80 82 86 89 92 95 95 97 97 101 99 99 103 106 109 111 114 116 119 118 114 109 108 104 100 92 87
55 55 56 57 57 59 60 62 64 66 67 68 70 72 75 78 81 84 86 89 92 93 95 97 98 98 96 100 104 107 109 111 114 118 121 118 115 110 106 100 94 92 92 86
58 59 59 59 60 61 62 65 67 68 70 72 74 76 79 82 85 87 89 91 93 94 96 99 97 98 103 106 108 109 111 114 117 118 116 112 109 104 99 93 87 83 80 79
60 60 61 62 64 66 67 68 71 73 74 76 78 80 82 84 86 89 91 92 95 97 97 98 101 105 108 109 110 112 114 116 115 113 110 107 103 97 91 87 83 78 74 72
62 62 64 66 66 66 69 71 73 75 76 78 79 79 82 86 88 90 93 96 96 97 100 103 108 110 111 111 113 115 115 115 111 108 106 102 96 91 86 81 76 72 71 68
67 67 67 67 68 69 71 72 73 74 77 79 81 85 87 89 92 95 97 97 99 101 105 110 111 112 112 112 113 112 110 109 106 103 96 92 88 84 80 76 73 70 66 64
67 69 69 70 71 73 74 75 77 79 81 84 86 89 91 95 96 97 99 102 105 109 110 112 113 113 112 113 113 112 109 106 101 95 89 85 82 79 76 72 69 67 63 60
66 67 70 71 73 75 77 78 81 83 86 88 91 95 97 96 98 101 104 108 111 113 113 113 114 114 113 112 110 107 103 99 91 87 84 80 77 74 73 69 66 65 63 60
73 73 74 76 77 79 81 83 86 89 92 94 94 94 96 100 104 107 109 112 114 114 113 112 112 111 110 108 104 101 95 91 86 81 78 76 74 71 69 66 65 63 62 61
73 73 75 78 81 84 86 88 90 91 92 93 96 100 103 106 109 112 113 114 113 113 112 110 110 107 106 103 98 94 89 84 80 76 74 72 69 67 67 65 63 60 58 58
76 78 80 82 85 86 87 90 92 94 97 100 103 106 109 112 113 113 112 111 111 109 106 105 104 104 102 99 93 88 84 80 77 74 71 68 66 65 64 62 60 57 55 53
81 83 86 88 90 92 94 96 99 101 104 107 109 111 111 112 111 111 110 107 105 104 104 103 101 98 95 92 87 84 81 78 74 70 67 65 64 62 61 59 57 55 51 48
87 89 92 95 98 101 102 103 104 107 108 108 108 109 109 111 110 106 103 102 102 102 100 97 94 92 90 87 83 81 77 74 69 66 66 64 63 61 58 56 53 49 46 45
90 93 96 98 100 101 102 102 103 105 106 106 106 107 105 103 102 101 100 98 98 95 93 91 89 87 86 83 79 76 72 68 65 64 63 61 59 57 55 51 47 46 45 43
91 92 95 97 98 98 99 98 100 103 104 102 100 98 98 97 96 95 93 93 91 90 88 86 83 82 79 77 73 69 66 65 63 61 60 58 56 53 49 47 45 43 42 41

GFSNGP_250_spd_027.txt.gz
Wind_Speed
26 20 20 22 23 24 23 24 23 25 23 24 20 27 28 28 29 31 28 27 31 34 38 38 42 47 52 55 58 61 63 66 70 71 72 74 79 84 87 89 90 92 97 94
27 26 23 22 25 26 22 22 22 24 25 24 25 30 30 33 30 29 30 34 36 38 40 43 48 51 54 58 59 62 66 70 72 74 77 81 85 87 89 90 92 97 97 97
28 27 25 23 29 22 21 22 25 28 32 29 29 29 30 29 29 32 35 37 39 43 45 49 52 54 57 59 62 65 69 72 75 78 82 87 89 90 93 93 96 97 99 104
30 26 25 31 25 25 26 26 27 29 30 28 27 28 30 31 34 36 38 41 44 48 51 53 55 58 60 63 66 70 73 75 79 84 89 91 93 94 96 97 98 98 104 104
31 27 26 29 26 27 26 26 28 30 29 29 27 29 33 36 37 40 43 46 49 52 54 56 59 62 63 66 71 74 77 80 84 89 92 94 96 97 98 99 98 104 105 107
31 29 28 34 27 29 26 26 30 29 29 29 31 32 36 39 42 45 47 49 52 54 57 60 63 65 67 71 75 79 82 86 90 93 96 97 97 99 99 98 104 106 108 112
34 30 32 37 32 31 31 34 30 31 31 31 32 36 39 42 45 48 51 54 55 57 60 63 66 68 71 75 79 83 87 91 94 96 97 99 101 99 100 104 107 108 111 115
36 33 37 38 36 35 37 37 35 34 35 36 38 41 45 48 50 53 55 57 60 64 66 69 72 74 78 81 85 88 92 95 97 99 100 101 100 101 105 108 109 111 114 118
37 37 39 42 41 40 41 41 41 39 39 41 44 47 49 51 53 56 58 61 64 67 70 73 75 78 82 86 90 94 97 98 98 99 100 99 101 106 109 110 110 113 117 119
39 39 40 45 45 43 44 45 46 46 46 47 49 51 53 55 58 59 62 65 68 71 75 78 79 82 85 88 92 95 97 97 97 100 100 102 105 110 109 110 112 115 118 117
40 43 41 44 46 45 46 48 50 51 52 53 54 55 58 60 62 64 68 70 73 76 79 81 83 85 88 92 94 95 96 97 99 100 102 107 111 110 109 112 114 116 116 114
44 45 44 47 47 47 48 50 52 54 56 58 59 60 61 65 68 70 73 76 79 81 82 83 85 88 92 92 94 96 99 100 101 103 108 110 110 109 113 115 116 116 113 111
46 47 48 50 52 51 51 52 55 57 59 61 63 66 69 71 73 75 77 79 81 82 84 86 88 90 92 94 96 99 100 103 106 110 112 112 112 112 111 112 117 114 112 105
48 50 52 53 53 55 57 59 60 61 62 65 67 69 71 73 75 77 80 81 84 86 86 88 89 92 95 98 100 102 105 107 110 113 114 113 113 114 112 111 105 103 104 99
53 54 56 56 55 57 59 62 62 64 66 68 69 71 73 75 78 80 82 84 85 87 89 91 94 96 99 102 103 107 109 111 113 115 114 113 113 111 109 106 101 94 90 89
52 56 59 59 60 62 64 65 67 68 69 70 72 74 76 79 81 83 85 87 90 92 93 96 98 101 103 103 108 110 113 114 115 114 114 114 111 107 106 102 97 91 87 84
56 59 61 62 65 66 67 69 70 72 73 76 77 79 81 83 86 88 90 91 92 95 97 100 102 101 104 109 111 114 114 116 115 114 111 108 106 103 100 94 89 85 82 80
63 63 64 65 68 70 71 72 73 75 76 79 81 83 85 88 89 90 92 95 96 99 101 100 103 108 110 113 114 115 115 115 112 109 107 104 102 97 91 85 82 79 77 74
66 66 67 68 70 73 75 76 77 78 80 81 84 87 89 90 93 95 96 97 99 99 102 106 110 112 113 113 114 114 113 110 107 106 103 100 96 91 86 81 77 74 71 68
70 73 73 72 74 75 77 79 81 83 85 88 89 90 92 94 95 97 98 99 101 104 109 111 113 113 113 113 113 112 108 106 104 102 98 95 89 84 81 77 73 70 67 66
74 75 73 75 76 77 79 82 85 87 89 91 91 93 95 96 98 100 103 106 109 111 112 114 113 112 112 111 109 107 105 102 100 96 92 88 83 80 76 73 70 68 67 65
77 80 83 83 82 84 85 87 88 89 90 92 94 96 99 101 103 105 108 110 111 112 111 109 109 110 109 107 106 103 100 97 94 89 86 82 79 76 73 70 69 66 64 62
82 85 87 90 89 90 90 90 92 93 94 95 97 99 101 104 106 108 110 110 108 107 106 106 107 105 103 102 100 97 94 91 89 85 82 77 75 72 70 68 66 63 61 59
88 91 93 92 94 92 92 93 94 95 96 98 100 102 103 105 106 107 105 103 103 103 103 103 100 99 98 98 96 92 89 87 85 81 77 73 71 69 66 64 62 59 58 55
93 93 95 97 96 95 97 97 98 98 99 101 102 103 104 104 103 101 100 100 100 101 98 98 97 97 96 94 91 89 86 83 80 76 72 70 67 65 63 61 59 56 53 51
95 98 98 98 99 99 100 101 101 100 100 100 99 99 99 100 100 100 100 100 98 98 97 95 94 91 89 87 86 83 80 77 74 71 68 65 64 63 61 58 55 51 49 47
99 98 98 98 98 98 98 99 98 95 96 97 98 97 97 97 98 98 96 94 93 92 91 88 86 84 83 81 79 76 74 72 70 66 64 62 61 60 57 54 50 47 45 43

GFSNGP_250_spd_030.txt.gz
Wind_Speed
39 34 24 19 23 23 22 24 24 25 27 26 25 24 30 33 33 33 33 32 28 26 30 33 35 35 40 44 50 53 58 62 65 67 69 71 75 79 80 82 86 90 95 98
42 38 34 20 21 25 28 26 25 27 29 29 26 24 27 31 35 38 38 32 29 32 33 36 39 42 46 50 54 59 63 65 67 71 73 75 79 80 83 86 91 94 97 99
47 38 33 23 30 23 25 23 24 27 30 29 27 27 30 34 38 37 37 35 34 35 37 41 43 47 51 55 59 62 65 67 70 75 76 79 81 83 86 91 94 98 98 100
46 41 34 33 29 25 23 27 24 26 28 29 29 31 32 34 35 36 36 36 38 40 42 45 48 52 56 60 62 64 66 71 74 77 79 82 84 88 92 96 97 98 100 103
48 42 37 31 34 26 20 23 24 26 27 29 30 30 30 32 33 35 38 40 42 44 46 50 53 57 60 62 64 67 71 74 77 79 82 85 88 91 96 98 101 101 104 104
50 43 39 36 34 31 26 24 32 28 27 28 30 31 29 31 35 38 40 43 45 47 50 54 57 60 62 65 68 72 73 76 79 81 84 88 91 95 97 98 100 104 104 106
49 43 38 37 39 32 28 40 34 32 32 32 31 32 34 35 36 39 42 45 47 51 54 57 59 62 66 69 71 74 76 79 82 85 88 90 94 96 97 99 102 104 105 111
52 45 43 42 37 38 39 38 35 33 35 37 38 38 38 39 41 44 47 50 52 54 57 60 63 66 69 73 75 78 80 83 86 87 90 94 96 97 100 104 104 107 109 114
54 52 49 48 43 40 41 40 38 37 38 40 42 43 44 45 47 49 51 54 57 60 62 65 68 69 72 75 79 83 86 88 90 92 95 96 98 100 105 106 108 110 115 117
53 54 52 49 44 39 40 42 42 42 42 43 45 46 49 51 53 55 57 60 62 65 67 70 71 73 77 80 84 86 88 91 93 95 96 98 101 104 107 109 111 116 117 117
52 51 51 47 41 40 41 42 43 45 45 46 47 48 51 54 56 59 61 64 67 70 72 74 76 79 82 84 87 89 91 92 94 97 99 102 105 107 108 113 116 116 118 116
54 55 51 48 42 42 42 43 45 48 50 52 53 54 56 58 60 63 66 69 71 73 76 78 81 83 85 88 90 91 93 96 97 99 102 104 104 107 114 116 117 119 118 116
52 55 50 44 42 45 45 45 47 50 53 55 58 60 62 64 66 69 70 72 75 77 78 81 84 87 89 90 93 96 97 98 100 103 105 104 110 113 113 115 119 121 119 117
51 47 42 42 44 46 50 50 51 52 55 58 61 63 65 67 70 73 76 78 80 81 83 85 89 90 92 95 96 98 100 102 105 104 107 112 114 116 115 112 108 111 115 113
44 45 44 49 49 52 50 50 53 56 58 60 62 65 68 71 73 76 80 83 83 84 87 90 92 94 97 98 101 103 104 105 105 110 114 114 116 114 113 111 110 108 107 106
54 54 57 55 55 55 54 55 56 58 60 62 63 67 70 72 75 77 79 81 85 88 90 93 96 98 100 102 104 104 105 108 112 113 114 115 113 112 110 110 109 108 104 98
58 59 59 58 56 57 59 60 65 66 66 67 68 69 70 73 77 81 83 85 88 91 95 98 101 103 103 105 106 107 111 112 112 114 114 111 110 109 109 110 107 104 97 91
59 61 58 56 57 60 63 69 72 72 73 74 75 76 77 76 80 84 87 91 93 96 98 100 101 102 103 104 106 108 109 112 114 111 109 109 109 109 109 106 101 93 87 84
62 60 61 64 66 69 74 79 79 79 80 80 80 78 81 85 86 89 92 94 94 96 98 99 100 101 102 105 108 109 111 111 109 108 109 109 109 108 104 97 90 85 81 78
68 72 75 75 74 76 79 83 82 82 83 83 86 88 89 91 96 97 100 100 100 100 100 101 103 105 106 108 110 110 109 108 109 109 110 110 107 102 95 90 85 81 77 75
73 73 74 77 79 80 81 85 86 86 88 89 92 94 95 100 103 105 101 101 102 103 104 106 108 109 109 109 108 108 108 109 110 111 109 104 98 94 89 86 82 77 74 72
75 76 79 82 84 87 89 91 91 93 95 96 98 101 104 106 106 104 104 106 106 108 109 109 108 108 108 107 107 107 109 110 109 106 102 96 93 89 86 82 79 75 71 69
78 79 83 87 90 92 93 94 96 99 100 101 104 106 106 107 108 109 109 109 110 109 108 108 107 106 106 107 109 109 108 106 104 100 95 91 87 84 81 79 75 71 69 66
84 86 88 90 93 94 96 99 99 101 102 105 106 106 107 108 108 109 109 109 108 107 107 105 105 106 107 109 108 105 103 100 97 93 89 86 82 80 76 73 71 68 64 60
89 91 93 95 98 99 100 102 104 104 104 104 106 108 108 108 109 110 110 109 108 106 105 107 108 108 107 104 102 99 95 92 90 86 83 81 78 74 71 69 65 62 59 55
91 95 96 95 94 96 100 101 102 102 103 106 107 108 109 110 110 109 108 107 107 108 108 108 106 102 99 96 93 90 88 85 83 80 78 75 72 70 67 63 60 58 55 51
93 96 98 98 97 98 98 100 102 103 104 106 108 108 108 107 107 108 107 107 106 104 101 98 96 92 89 87 85 83 81 79 77 75 72 70 67 64 62 59 58 55 51 48

GFSNGP_250_spd_033.txt.gz
Wind_Speed
43 43 37 37 30 29 29 27 23 28 28 32 27 26 28 31 34 37 36 33 32 35 34 32 35 37 37 36 40 41 47 51 57 60 64 66 67 71 74 78 80 84 86 87
42 44 40 37 33 33 33 32 28 26 28 33 28 29 30 33 35 37 38 36 34 33 35 36 37 40 42 43 46 49 53 56 60 64 66 68 72 76 79 81 84 87 87 92
42 46 39 41 37 31 28 29 27 23 29 32 30 29 31 31 32 35 38 38 39 41 39 39 42 43 45 47 49 53 56 61 65 67 69 72 76 79 82 84 87 88 91 94
42 43 40 44 36 31 27 26 29 29 32 32 30 32 32 30 34 37 39 42 42 42 42 41 43 46 48 51 54 57 61 65 67 70 73 76 79 81 84 86 87 91 94 97
42 43 38 44 40 38 28 28 34 34 31 28 27 25 27 30 34 35 38 40 41 41 43 45 47 49 52 55 59 63 65 67 70 72 76 79 81 83 86 89 92 94 96 99
45 45 38 45 41 36 33 34 32 31 30 28 28 28 29 29 31 33 36 39 40 43 46 49 52 54 57 60 62 64 66 69 73 77 79 80 83 85 88 92 95 96 99 101
44 43 39 44 43 39 39 38 39 35 36 36 35 36 37 36 34 33 36 40 43 46 49 52 55 58 60 61 63 66 70 74 75 77 81 83 86 89 92 95 97 99 101 102
46 45 44 47 45 44 44 43 41 37 40 40 39 40 40 39 40 40 42 43 45 47 50 53 55 58 62 64 67 71 74 76 79 81 83 86 89 93 95 97 99 100 102 105
48 45 47 48 48 46 47 43 40 38 38 42 43 43 43 42 42 45 47 48 50 52 55 58 60 62 65 67 71 73 76 79 81 84 87 91 93 97 99 99 101 104 105 106
47 47 48 49 53 51 49 49 45 43 39 41 43 44 45 45 46 47 48 50 52 55 58 61 63 66 69 71 74 77 80 83 86 89 92 96 98 99 100 103 105 107 107 109
46 49 52 52 53 52 53 47 46 46 42 41 42 43 45 46 48 49 52 54 56 59 62 65 67 70 71 74 78 81 85 88 91 93 96 97 99 101 104 107 108 110 111 112
50 54 53 54 55 55 55 54 52 46 43 43 42 42 42 44 46 50 52 55 58 61 64 67 70 72 74 76 81 84 87 89 91 94 96 99 102 105 107 110 112 112 112 111
53 57 56 56 59 62 59 59 53 41 43 44 44 46 48 48 50 52 56 59 61 64 66 69 70 72 76 77 80 85 89 93 95 97 100 101 103 105 105 106 109 111 112 111
58 60 59 59 59 58 57 53 50 45 49 51 48 46 46 48 51 56 58 59 62 64 67 70 73 75 77 80 83 88 92 95 96 97 98 98 99 100 101 103 105 107 109 110
61 63 63 65 58 57 56 55 53 53 53 55 54 53 53 56 60 63 64 66 69 72 75 73 75 81 82 86 91 99 98 96 96 97 97 99 101 103 104 103 105 106 107 108
62 64 65 64 63 64 60 63 60 59 60 59 60 60 61 64 68 72 75 75 75 78 78 79 85 86 90 95 99 100 98 98 98 100 102 104 105 105 105 107 107 106 105 101
64 68 69 67 67 63 59 57 55 57 60 63 64 65 68 69 76 79 82 83 84 84 85 88 90 94 98 100 102 102 100 101 104 105 107 107 107 107 108 108 107 106 104 100
68 69 64 68 68 65 66 63 62 65 66 64 68 73 79 80 82 84 85 87 90 93 94 97 99 100 102 105 105 104 105 105 107 109 109 109 109 108 109 109 107 105 100 95
67 60 60 64 65 71 74 73 70 69 69 71 76 83 84 86 89 92 93 94 97 98 100 101 102 105 109 108 108 107 106 109 112 113 111 110 110 110 110 108 104 98 92 87
72 70 66 60 58 70 66 74 76 75 78 82 84 88 91 92 93 95 97 100 101 102 105 107 111 112 110 110 109 110 112 113 115 114 113 112 112 110 108 103 97 91 87 83
70 69 63 68 75 76 75 78 82 83 84 87 90 96 94 93 95 98 101 105 108 110 113 113 112 111 111 110 111 114 115 115 114 113 112 112 111 107 101 97 92 87 84 79
69 71 70 74 77 79 77 78 83 88 92 94 98 96 97 99 103 107 108 111 113 112 113 112 112 112 112 114 115 116 115 113 112 112 112 111 106 101 97 92 88 84 79 75
74 77 81 79 80 83 88 89 92 96 97 100 101 102 105 106 109 111 111 111 113 113 111 112 112 115 116 115 116 115 114 114 114 114 109 102 98 94 91 87 83 79 76 71
81 84 88 90 89 90 94 94 96 99 100 101 102 103 105 107 111 113 115 112 111 111 112 114 116 117 116 115 114 115 115 114 109 102 98 95 92 88 85 81 79 75 71 68
84 84 84 86 90 92 96 99 102 102 103 105 108 110 114 114 115 113 111 110 112 114 116 116 115 114 114 114 113 109 105 100 97 93 90 88 85 82 80 77 74 70 67 64
83 86 90 95 98 100 103 107 108 111 109 109 111 112 111 108 108 109 111 113 114 112 111 111 112 111 107 102 98 95 92 90 88 86 84 82 80 78 75 71 69 65 62 58
94 95 94 93 93 93 94 97 101 104 106 107 106 105 107 109 111 110 110 109 109 109 108 104 99 96 94 92 90 88 86 85 83 81 79 77 75 72 69 66 63 60 57 55

GFSNGP_250_spd_039.txt.gz
Wind_Speed
49 56 42 42 44 44 39 35 34 37 37 37 30 26 26 23 27 30 32 33 35 39 40 41 41 40 40 43 44 42 41 43 44 46 50 53 58 61 63 68 71 75 80 81
52 55 49 43 48 45 39 35 34 38 40 39 31 23 24 27 27 31 32 34 37 37 38 39 41 42 43 45 46 41 44 46 48 50 53 57 61 65 68 72 75 77 79 81
53 59 56 46 56 45 39 37 33 39 40 35 30 26 23 27 28 31 33 36 39 41 40 40 40 41 42 42 44 47 49 52 52 52 55 58 63 66 69 73 75 76 79 82
57 56 49 52 50 46 42 37 34 40 39 36 33 28 30 28 25 31 35 38 40 41 41 40 40 41 42 43 44 44 43 43 45 48 51 55 59 63 66 70 74 78 80 82
55 53 52 49 53 51 42 36 37 39 39 41 34 30 31 30 30 32 35 36 38 36 37 37 40 41 40 40 42 43 44 45 48 52 55 58 62 66 69 72 75 78 81 83
56 55 49 55 57 49 43 44 41 37 39 41 37 34 32 34 30 32 34 38 41 41 41 43 44 45 46 46 46 46 48 51 53 56 59 62 65 67 69 72 76 77 79 82
59 56 56 61 58 51 40 49 43 35 40 42 40 38 33 35 34 36 36 36 40 45 48 48 47 47 48 49 50 51 52 54 55 57 59 62 65 66 69 72 74 77 81 84
62 62 54 62 59 51 48 49 43 44 42 44 42 43 38 40 39 41 40 41 40 42 46 50 52 53 52 53 53 54 55 56 56 57 58 61 65 67 70 74 77 78 83 87
65 60 63 61 55 53 51 47 47 48 45 46 45 46 45 44 47 46 45 46 47 47 47 48 50 52 53 53 51 51 51 52 54 58 61 64 67 71 72 74 77 81 86 90
59 56 59 57 57 55 53 50 51 50 47 49 48 48 49 50 50 50 48 50 51 53 51 53 55 54 52 51 51 50 52 54 57 59 64 70 71 73 76 78 81 85 89 92
58 56 58 58 62 59 55 56 54 54 49 48 51 52 54 55 53 55 53 55 55 58 59 56 57 54 52 56 59 59 59 60 64 69 76 78 79 78 77 81 84 88 92 97
52 58 61 61 62 59 57 58 57 53 51 48 52 53 56 60 58 60 60 62 61 60 60 60 56 57 60 61 64 66 67 68 69 70 70 72 76 81 85 86 89 95 101 106
61 67 67 65 62 60 60 59 59 56 53 50 53 55 59 64 63 64 64 67 65 64 63 62 66 67 60 62 64 66 66 66 71 73 75 80 85 90 90 94 98 103 106 108
63 66 66 67 67 65 63 60 60 58 54 54 58 60 62 67 69 67 67 68 70 70 66 68 65 64 64 67 65 64 70 74 78 80 86 87 90 99 100 101 106 106 109 111
62 66 68 69 69 67 64 61 60 58 58 59 64 66 67 70 72 72 71 72 73 76 69 70 70 69 72 73 72 74 79 82 86 90 92 95 101 104 104 111 114 115 115 116
69 72 70 69 69 66 66 66 64 63 63 65 68 70 70 73 76 76 75 80 83 79 74 75 76 79 77 73 75 83 88 90 95 97 101 104 109 110 115 117 119 120 122 124
71 70 72 72 69 69 69 66 66 66 69 71 71 72 72 76 80 84 85 83 87 85 82 80 84 80 79 85 89 94 99 103 106 106 111 112 113 118 119 121 124 126 126 126
73 75 74 72 71 69 68 70 71 72 74 74 75 75 78 82 85 87 87 90 89 89 88 86 84 84 89 94 98 101 105 111 115 116 115 115 118 122 123 127 128 130 129 124
75 76 75 75 72 69 72 74 75 75 76 77 79 80 84 88 89 90 90 90 88 91 93 90 92 95 98 102 108 110 111 114 115 114 115 121 124 126 130 131 131 127 123 120
75 77 77 74 72 74 75 76 78 80 82 84 85 88 89 90 91 92 95 96 96 93 90 95 99 102 106 106 108 113 115 115 117 120 122 125 127 128 131 129 126 123 118 111
77 77 77 78 79 80 81 83 85 86 85 88 90 89 91 93 95 97 96 99 92 93 98 100 102 104 107 111 116 113 113 116 119 122 124 127 130 130 126 124 120 114 108 103
78 80 81 82 83 84 86 88 89 91 94 92 90 91 92 94 97 99 101 103 102 105 102 104 107 111 113 112 112 114 118 122 125 126 125 128 127 125 122 116 110 104 101 98
83 85 85 86 88 91 93 95 97 96 94 96 97 96 97 98 100 102 105 106 106 106 106 108 110 110 110 113 116 119 122 123 124 125 123 121 120 115 110 105 102 99 95 91
86 87 90 91 92 93 94 95 98 96 95 94 95 98 99 100 99 99 101 102 103 105 108 110 109 113 115 116 119 121 121 121 119 119 117 113 109 105 101 99 95 92 87 84
88 89 91 93 95 92 89 92 94 96 97 97 95 96 97 97 98 98 101 105 106 106 107 110 111 113 115 116 117 116 116 115 113 110 106 102 98 96 93 90 87 85 82 79
94 96 96 94 93 93 92 91 91 93 94 94 94 95 96 98 99 101 101 103 105 109 111 110 111 112 112 112 112 111 108 105 102 98 96 94 91 89 86 83 81 79 75 71
85 85 84 84 83 84 84 85 87 90 93 95 96 96 98 101 101 102 103 105 105 106 108 109 108 108 107 106 103 101 97 93 92 91 90 88 85 82 79 76 73 71 69 66

GFSNGP_250_spd_042.txt.gz
Wind_Speed
72 64 65 63 64 43 41 44 38 42 42 39 43 36 33 30 32 33 35 31 29 27 30 30 31 33 36 37 37 35 33 39 44 47 43 46 54 56 57 59 61 63 66 69
77 71 70 69 66 49 42 46 44 39 45 40 43 38 38 34 30 29 29 33 33 32 28 33 32 33 36 36 36 37 39 41 46 49 49 53 56 57 61 62 63 63 65 68
82 77 74 71 66 44 50 49 53 47 47 42 44 42 35 34 30 29 28 27 30 33 30 34 35 35 36 37 39 39 40 42 44 46 49 51 53 54 53 53 56 59 62 66
87 83 79 65 63 52 47 50 56 48 46 44 40 43 37 35 32 29 26 25 25 27 30 32 34 37 37 37 38 39 41 43 44 45 45 46 48 50 52 55 59 62 66 69
91 87 78 76 72 52 53 52 54 51 45 41 40 44 41 36 35 31 26 26 25 25 27 29 34 39 42 44 45 47 48 48 48 49 50 52 54 56 58 61 63 65 68 70
93 92 87 76 64 57 56 46 58 52 46 45 45 45 42 42 39 33 33 29 32 31 29 30 28 31 35 42 48 51 52 53 54 55 55 56 58 59 60 62 63 63 66 71
99 95 86 79 61 60 53 54 59 51 47 48 45 47 44 44 45 43 40 38 37 36 35 35 34 38 40 45 43 45 48 51 53 55 56 57 58 59 57 57 61 65 69 75
99 94 83 60 65 59 56 65 58 55 51 50 47 47 45 45 48 47 47 44 43 42 42 43 45 47 46 48 46 48 51 53 54 56 57 56 57 58 59 62 65 71 74 72
86 70 55 64 64 62 63 59 59 59 55 54 50 53 47 49 52 50 50 50 51 50 49 50 52 53 53 54 52 52 52 54 57 59 60 59 61 64 67 70 72 73 75 80
64 53 64 62 64 66 63 57 62 58 52 52 51 53 51 53 53 53 53 55 56 57 55 55 57 58 59 59 59 58 58 59 60 65 68 70 72 71 72 73 72 76 83 84
52 64 64 65 63 67 62 56 54 59 58 58 56 56 55 58 56 56 53 56 58 61 60 60 62 63 66 62 62 65 67 68 68 67 67 67 69 68 66 72 77 80 86 89
60 72 71 64 67 68 64 60 59 58 58 61 59 59 58 60 59 59 56 60 61 63 66 68 70 67 70 70 71 72 72 72 72 71 72 71 73 73 77 80 85 88 90 96
66 75 64 61 66 65 65 67 66 60 63 63 61 62 63 63 62 61 58 61 61 66 69 71 72 73 75 74 78 77 79 76 71 77 79 78 78 80 82 86 92 92 96 102
65 70 69 70 68 66 70 68 66 64 65 65 66 67 66 66 65 63 62 63 66 70 74 75 77 79 77 80 80 81 82 80 79 85 82 81 81 82 86 90 94 99 104 108
64 66 73 72 73 70 72 74 72 66 66 71 72 71 71 69 70 67 69 71 72 75 77 79 81 82 83 85 87 86 86 86 87 91 88 87 87 92 95 98 101 106 110 112
65 66 67 68 68 66 69 72 72 73 73 75 75 73 73 72 73 73 77 77 80 82 84 83 83 86 89 92 94 95 93 95 96 99 94 92 94 100 105 107 111 117 118 116
67 67 69 70 70 69 71 73 74 75 75 76 76 76 76 76 77 78 80 81 84 86 87 87 89 92 95 96 100 101 103 103 107 104 101 103 105 109 113 117 121 118 118 120
68 70 73 72 76 73 72 74 72 74 75 79 82 82 81 81 83 84 86 87 88 88 90 91 93 97 102 102 104 107 109 109 107 107 107 107 112 115 119 121 122 121 122 123
72 76 77 72 72 74 77 76 77 78 81 84 83 84 83 85 87 88 90 91 91 92 96 99 100 102 106 106 107 107 103 105 109 110 108 117 119 121 123 123 122 123 124 125
73 73 74 76 77 79 80 81 82 84 84 84 86 87 88 91 91 93 95 96 98 101 104 104 109 111 107 110 107 107 107 108 109 113 116 119 119 122 121 120 122 126 124 124
74 75 76 78 81 82 83 84 86 86 87 89 89 91 93 95 97 100 101 102 105 107 108 112 111 111 112 108 109 108 109 113 117 118 118 120 121 118 119 121 121 120 121 123
72 74 79 81 82 84 84 86 88 90 91 92 94 95 99 101 104 105 106 109 110 112 114 110 113 109 108 109 108 108 110 113 116 119 119 117 118 117 118 118 118 120 117 113
75 77 80 83 84 86 88 90 90 92 94 96 98 100 102 104 108 111 111 115 114 112 108 107 109 107 105 105 109 111 113 116 118 117 117 116 117 118 117 118 116 112 108 104
79 80 82 85 87 88 91 93 95 97 99 101 104 106 109 109 111 111 112 114 114 112 110 106 105 106 107 110 112 115 117 115 112 112 114 115 115 115 113 109 106 103 99 96
86 87 89 90 93 96 98 100 102 103 103 106 107 108 109 110 113 114 114 110 107 105 106 107 108 110 113 114 113 110 110 112 111 112 113 111 108 105 102 99 96 93 91 88
88 89 90 91 93 96 99 101 103 104 105 106 108 110 111 111 109 106 103 102 104 108 111 111 110 111 111 111 111 109 108 108 107 104 103 101 99 96 94 91 88 85 81 78
93 95 96 98 98 100 101 101 102 105 106 108 107 105 103 101 101 101 104 107 108 108 109 109 107 105 106 105 105 104 101 99 97 95 94 92 90 88 86 83 79 76 74 72

GFSNGP_250_spd_045.txt.gz
Wind_Speed
67 70 72 67 62 56 55 51 50 34 31 38 35 36 39 40 46 41 30 29 27 23 25 30 31 32 29 33 38 40 48 49 50 52 53 53 57 62 65 65 63 66 67 67
76 75 79 74 68 60 55 51 51 46 43 37 40 42 43 38 44 41 38 31 30 27 20 26 31 32 35 33 32 33 40 45 48 46 48 52 57 61 62 63 64 63 63 62
81 81 80 79 70 65 61 59 55 53 44 40 40 39 44 40 42 40 39 34 29 28 19 19 25 27 27 28 32 35 36 38 43 44 46 48 52 53 53 55 56 57 58 61
89 88 90 70 72 69 64 61 58 52 48 40 43 45 46 40 41 42 45 38 33 29 23 19 20 23 20 18 19 22 27 32 38 43 47 50 52 54 55 58 60 61 63 64
92 90 84 78 72 74 73 65 58 56 54 47 46 46 48 43 45 48 46 42 39 33 29 24 20 19 22 24 24 25 28 29 31 36 42 47 49 51 54 56 59 62 64 65
94 94 87 78 77 78 82 69 66 64 59 58 56 48 47 48 45 47 42 45 46 40 36 32 26 24 28 30 32 31 30 30 32 36 35 40 45 48 51 53 57 61 63 63
101 95 89 86 80 80 84 68 71 72 65 56 60 63 52 51 51 52 50 44 48 47 43 40 37 38 38 38 39 39 42 42 43 41 46 48 51 53 56 59 61 63 65 68
109 100 94 87 88 87 83 79 79 78 73 69 66 56 53 49 46 52 52 49 49 48 48 47 46 48 49 49 48 49 52 51 53 52 53 55 56 59 63 66 68 69 69 70
106 102 98 96 95 92 89 86 83 79 74 70 66 50 53 54 58 61 55 53 49 51 53 52 52 54 55 54 55 57 59 60 59 57 58 62 61 64 66 64 66 70 73 75
96 94 93 87 88 87 87 87 82 75 69 62 56 50 54 56 58 55 54 52 55 55 54 55 56 58 58 57 59 61 64 65 67 68 69 66 68 70 71 69 69 72 71 72
84 87 88 84 81 77 70 68 67 67 61 62 59 53 55 59 58 57 60 58 56 57 58 60 61 61 60 60 63 66 68 70 72 74 73 74 76 78 78 79 80 79 81 84
74 75 72 70 66 59 56 62 66 63 65 59 59 56 57 56 56 58 59 60 57 60 62 65 67 67 65 64 68 71 73 75 77 79 79 79 83 84 88 88 86 88 90 94
60 60 62 59 56 51 59 58 61 62 64 62 61 61 62 57 61 62 63 63 64 66 68 70 72 73 71 72 74 76 79 81 82 83 83 85 88 90 97 96 92 93 96 100
50 52 54 56 54 54 65 63 63 64 62 65 64 62 65 64 65 66 67 66 69 71 72 75 77 76 77 78 80 82 85 86 88 88 87 91 92 96 102 100 99 102 103 101
52 54 54 53 55 61 68 68 71 68 66 63 65 67 68 71 71 70 71 72 72 76 78 80 80 81 82 83 85 88 89 91 92 93 96 99 100 103 106 104 108 110 105 100
52 54 55 53 59 64 62 65 71 73 69 67 67 67 66 65 69 74 75 76 79 82 82 83 84 88 88 88 91 92 93 95 96 99 103 105 108 110 112 114 112 107 105 105
53 55 54 56 57 60 62 68 72 76 74 72 72 74 72 71 74 77 80 84 83 87 85 86 88 93 95 93 94 96 96 100 103 106 108 110 113 120 118 116 109 107 108 112
55 55 57 59 61 62 63 64 68 77 81 79 74 72 75 78 76 79 83 86 84 86 88 92 94 93 98 98 99 101 103 107 109 110 113 117 121 116 113 110 109 111 112 114
58 57 58 61 63 62 64 66 69 70 73 75 77 79 79 82 82 83 85 87 89 93 94 96 96 98 99 102 104 107 109 111 115 119 118 121 118 115 112 108 110 113 117 121
58 59 61 65 66 65 67 70 72 73 75 77 79 80 81 84 88 88 91 94 94 97 101 101 102 105 106 107 109 111 116 116 120 122 120 121 116 112 111 113 117 118 120 124
58 59 63 66 68 69 70 73 75 76 78 80 84 88 87 89 91 94 96 99 101 103 105 107 109 110 111 112 114 115 119 122 121 121 121 117 116 115 115 118 120 123 125 126
59 61 64 68 70 72 74 76 79 80 83 84 85 87 90 93 95 98 100 102 104 107 109 112 112 112 115 117 119 121 119 119 122 120 117 115 114 116 120 121 122 124 123 120
65 67 69 72 76 79 81 83 84 85 87 90 91 93 95 98 101 103 104 106 108 109 109 112 115 118 121 120 119 119 120 120 118 115 114 115 118 120 122 121 119 117 115 110
71 73 76 78 81 83 85 85 86 88 90 93 94 95 96 98 100 102 103 105 108 112 115 117 117 116 118 118 119 120 117 112 113 115 117 119 118 116 115 113 112 107 104 100
76 78 80 83 85 87 88 90 91 93 94 95 97 99 101 102 104 106 108 111 112 112 114 116 117 117 117 115 112 113 114 114 114 114 113 113 112 110 107 103 99 96 93 91
80 83 85 87 88 89 91 94 96 98 99 100 100 102 104 105 105 106 110 114 114 113 113 115 115 112 112 112 112 111 110 108 108 108 106 104 102 98 95 92 90 88 86 83
85 87 89 91 93 94 95 96 97 100 101 101 101 102 103 104 104 104 105 108 109 108 106 105 106 106 107 107 106 106 105 103 100 98 95 92 91 89 87 84 82 80 77 76

GFSNGP_250_spd_048.txt.gz
Wind_Speed
66 68 65 61 61 58 53 50 52 51 46 44 41 40 34 29 26 31 32 33 33 40 34 18 14 18 24 31 38 41 43 44 47 51 55 53 56 56 63 68 71 76 79 82
76 71 68 70 64 62 61 56 55 55 52 48 43 46 42 37 32 28 35 34 30 35 43 36 30 22 20 21 31 34 36 39 43 49 51 53 57 63 66 67 66 66 66 67
80 76 77 75 62 66 66 67 64 59 55 57 51 47 47 43 37 27 34 35 34 31 38 37 35 33 30 25 20 21 32 35 34 38 43 50 56 60 58 58 62 66 68 70
82 82 89 62 73 74 73 72 70 67 65 59 53 50 48 39 37 34 30 39 37 38 34 36 40 35 34 27 25 21 23 28 31 38 43 42 42 40 42 45 47 50 54 57
93 90 86 77 76 78 80 72 71 70 69 64 59 54 48 42 39 41 33 36 41 41 34 35 42 39 36 32 32 25 23 26 27 30 33 36 39 40 40 42 46 47 50 52
94 96 93 82 86 86 81 81 79 76 74 69 66 59 52 55 54 54 44 40 42 48 45 39 40 45 42 38 35 38 36 33 35 36 39 37 40 39 44 46 47 48 52 56
97 95 93 91 90 88 85 79 83 83 80 75 71 64 60 59 50 50 48 43 46 48 46 40 43 50 48 45 46 44 41 43 45 46 46 48 49 50 54 54 55 57 58 59
86 93 100 96 92 92 89 86 86 85 82 78 71 66 64 60 52 53 50 43 48 49 45 45 46 52 49 49 53 48 47 50 51 52 54 56 58 58 60 61 64 64 64 66
84 83 94 102 97 97 93 93 91 88 86 79 74 73 69 66 65 64 58 51 49 51 51 48 48 49 53 54 54 53 51 53 56 55 57 60 63 65 67 67 69 71 72 72
79 85 90 92 96 100 95 95 90 89 86 83 79 77 76 77 73 68 54 57 54 51 51 50 53 54 56 57 56 58 59 59 62 65 67 68 69 71 72 75 75 78 79 80
75 80 83 87 89 89 91 97 97 93 87 86 84 82 81 77 65 56 57 62 57 56 54 53 55 54 56 59 61 64 65 65 67 69 71 73 75 78 78 80 81 83 84 85
73 76 79 82 82 82 78 77 80 84 85 86 85 80 72 62 58 57 59 58 59 61 57 54 53 56 59 63 68 70 72 72 74 74 74 76 79 82 83 87 88 89 89 90
70 74 76 75 75 73 70 69 70 69 67 67 68 57 60 56 57 56 63 59 64 66 62 58 60 63 66 70 75 77 78 78 81 80 80 81 84 87 88 89 91 92 94 97
65 70 71 73 69 65 63 63 60 60 62 59 59 61 59 60 62 59 64 63 65 66 66 66 68 71 75 78 78 81 81 86 86 86 86 85 88 91 92 92 95 96 99 101
61 64 67 67 63 60 59 55 57 54 57 63 61 63 56 55 59 60 65 61 62 66 69 73 76 80 81 81 83 86 86 88 90 92 90 92 93 95 96 98 100 101 103 106
60 61 62 60 59 56 55 55 55 55 62 61 58 54 54 57 59 63 64 68 65 66 69 74 75 78 81 82 87 90 90 92 96 95 97 99 103 100 101 104 107 107 108 113
54 56 55 54 54 53 53 52 53 55 61 66 64 62 63 60 62 63 66 68 69 73 75 76 80 85 83 86 89 93 94 97 96 100 103 106 106 102 107 111 111 112 117 121
49 50 52 51 52 51 51 53 54 59 65 70 72 69 68 66 60 62 67 72 73 72 80 83 82 85 90 93 95 100 100 99 101 104 105 104 105 110 113 115 116 120 124 126
47 48 51 51 50 53 56 57 59 61 64 66 65 65 64 64 66 69 72 74 79 83 83 86 92 97 97 98 97 97 99 103 106 106 108 111 114 116 117 119 122 126 127 126
46 50 52 53 55 57 61 61 63 64 62 63 66 67 67 70 72 75 78 80 84 87 89 91 94 96 97 99 102 105 106 107 108 112 116 117 118 120 121 124 127 126 126 126
48 50 51 54 58 63 65 65 65 64 65 67 69 72 73 74 76 78 81 83 86 88 92 94 97 101 102 104 104 106 109 112 114 115 115 117 118 123 127 126 125 125 121 117
46 49 53 58 62 65 66 67 67 67 69 71 73 76 79 80 81 83 86 89 91 94 95 98 101 104 105 108 109 109 108 109 112 116 120 123 124 124 123 123 120 116 115 116
49 54 58 63 66 68 69 71 72 74 76 77 79 82 84 86 87 90 92 94 97 100 102 104 104 105 106 107 108 110 115 117 118 120 122 123 121 119 117 114 112 112 112 110
55 59 62 65 68 71 73 75 77 79 82 83 85 87 89 91 93 96 98 100 100 100 102 104 105 105 108 111 114 116 118 121 120 118 116 114 114 111 109 109 108 105 104 102
60 64 68 71 74 77 79 81 82 84 85 87 89 91 93 94 96 98 99 100 101 102 103 105 107 109 111 113 115 115 114 112 111 111 109 107 106 104 102 100 98 94 92 90
66 70 73 76 79 81 84 86 88 89 90 91 91 91 92 93 94 95 97 100 102 104 105 107 109 109 108 107 106 106 105 104 102 102 100 98 95 93 91 89 87 86 84 83
72 76 80 82 83 86 89 91 92 92 91 91 91 92 93 94 95 96 98 99 100 101 101 101 101 101 100 100 99 99 98 96 94 92 90 88 86 85 84 83 81 79 77 75

GFSNGP_250_spd_054.txt.gz
Wind_Speed
70 72 69 65 67 67 63 55 53 47 47 52 51 43 48 44 40 41 39 40 42 30 27 28 29 29 29 31 32 30 27 26 26 24 26 32 39 44 48 50 54 53 49 50
72 70 69 67 67 65 63 60 60 51 50 56 55 47 45 40 44 45 46 41 43 38 34 37 33 28 28 31 35 34 35 34 31 30 27 24 29 38 41 45 47 47 45 47
77 76 75 76 78 77 70 67 64 58 51 56 54 52 48 46 48 48 46 45 40 40 35 38 42 36 29 29 33 36 38 38 37 36 36 32 31 33 33 37 40 41 43 44
83 86 85 78 82 75 75 71 71 67 64 59 59 59 54 48 55 53 49 49 43 46 44 41 44 38 36 30 34 39 40 41 39 37 36 35 35 35 39 41 44 41 43 47
86 88 81 80 81 81 81 75 77 71 68 61 61 59 54 56 55 59 58 57 54 51 50 52 51 45 39 39 38 35 42 45 45 43 39 39 38 38 40 43 43 47 50 50
90 91 88 83 89 91 92 81 90 79 73 69 67 64 60 65 62 62 60 64 59 58 61 61 59 53 52 48 46 45 41 44 48 50 52 50 47 46 46 48 50 51 50 50
98 99 97 96 100 102 100 92 92 88 83 77 71 71 69 72 67 65 63 64 67 64 62 63 62 59 60 56 57 52 48 50 49 52 56 57 56 56 55 56 57 57 56 56
89 91 94 100 103 104 106 100 99 99 96 90 86 83 80 79 75 74 74 71 71 71 71 69 67 67 65 64 60 61 58 54 55 58 58 62 63 62 62 61 62 61 62 63
81 82 82 84 85 84 87 87 86 85 88 89 90 87 85 83 82 76 79 81 81 79 77 73 69 71 67 66 66 67 68 59 62 61 67 66 66 67 68 69 66 65 66 67
74 77 79 78 74 77 80 77 78 78 79 81 82 83 83 85 85 81 78 78 80 85 86 82 81 78 73 74 74 72 75 76 72 69 72 73 70 70 72 72 71 71 74 74
69 70 74 71 67 70 71 69 71 82 75 71 77 81 84 88 89 85 82 82 84 84 86 88 88 85 85 84 80 80 81 82 83 79 78 78 78 74 74 72 73 77 80 81
61 64 65 67 64 65 66 67 69 73 71 69 74 77 80 81 85 88 88 88 86 84 86 87 89 88 88 88 87 87 86 82 83 84 81 81 80 80 82 82 81 82 85 87
53 55 55 58 59 59 61 63 68 66 63 67 73 72 74 75 79 84 86 90 91 85 85 81 83 82 84 86 85 82 83 81 85 87 86 83 82 87 89 90 90 90 92 95
46 45 46 53 57 55 57 62 62 64 66 68 68 69 68 73 77 78 79 80 83 86 86 83 82 81 82 82 79 82 85 85 88 87 79 81 84 87 90 92 92 93 93 95
48 44 45 50 53 54 55 57 60 63 65 67 68 65 68 64 70 70 70 73 75 75 77 75 73 73 76 79 81 87 83 84 88 86 83 84 85 88 90 92 93 94 94 94
46 46 48 52 49 51 55 58 59 60 65 64 65 66 69 66 64 62 67 67 64 66 68 69 70 70 75 84 83 83 81 84 83 83 85 87 89 89 92 92 92 95 96 98
45 48 48 49 49 51 53 53 58 60 65 65 62 63 65 65 64 65 63 63 65 66 70 71 73 76 78 84 87 84 84 85 86 90 92 93 94 94 97 102 103 105 104 104
40 42 42 44 47 49 51 50 52 53 57 61 61 60 58 59 62 64 65 68 72 72 73 75 77 80 82 85 88 90 91 93 95 93 92 93 93 95 94 97 97 102 104 105
40 42 43 45 46 47 48 49 48 51 54 57 59 59 60 63 65 65 68 71 74 77 80 82 83 83 83 86 89 91 93 93 91 92 95 97 101 102 103 103 106 105 106 109
33 36 39 42 43 45 46 48 49 50 51 53 54 57 61 66 65 68 71 74 78 81 82 87 90 90 92 93 93 97 100 100 100 102 102 104 104 105 108 109 109 110 111 110
37 39 40 39 39 41 42 45 47 48 51 52 54 55 57 61 65 69 72 75 77 81 84 88 90 92 94 96 97 98 101 103 104 105 105 105 105 106 106 105 106 107 109 111
35 36 39 38 37 38 40 43 46 47 48 50 53 56 58 63 69 72 75 78 79 81 83 86 89 92 93 94 95 97 98 99 99 99 98 99 101 102 102 104 107 109 111 113
33 34 35 35 35 36 38 39 41 44 48 51 53 56 60 64 68 71 74 76 79 81 83 86 89 91 91 92 93 93 94 95 95 97 99 101 103 104 106 107 109 111 112 112
31 33 34 34 34 37 39 41 44 46 49 52 55 58 62 66 68 71 74 77 80 83 85 86 87 88 89 89 90 91 95 97 97 98 100 102 104 106 107 107 106 106 104 102
26 29 32 34 37 39 42 45 48 50 54 57 60 62 65 68 71 73 77 80 83 85 86 87 87 89 90 92 93 94 95 97 98 100 100 100 99 98 97 96 97 96 93 91
33 36 39 42 45 47 50 53 55 57 59 62 64 66 68 71 73 74 76 78 80 82 84 86 88 89 90 92 93 93 92 92 91 91 91 91 91 90 88 88 87 86 85 83
40 44 46 50 53 56 58 61 64 65 66 68 69 71 72 73 73 75 76 78 80 81 83 84 85 86 86 86 86 86 86 86 85 83 83 83 83 83 82 81 80 79 79 78

GFSNGP_250_spd_057.txt.gz
Wind_Speed
67 67 66 62 63 58 53 52 54 52 53 53 50 54 49 42 35 40 42 43 44 48 47 42 36 28 25 30 24 28 23 25 25 26 25 23 23 24 26 28 31 34 36 40
72 70 65 66 67 64 60 65 64 62 58 57 54 57 54 50 46 43 41 43 46 48 50 46 45 38 31 28 29 32 31 29 30 28 28 29 32 30 28 30 32 29 30 34
76 77 73 71 75 75 73 69 68 67 63 62 57 57 60 55 55 50 46 44 45 46 52 46 46 47 41 36 31 30 34 35 35 38 38 37 38 39 37 36 35 37 37 36
75 75 73 70 72 74 77 74 72 70 66 61 55 55 59 61 61 56 53 48 49 50 54 50 49 46 50 47 39 37 37 35 38 39 41 44 45 45 46 45 43 43 44 44
74 77 75 75 79 78 76 75 76 72 70 68 63 62 61 63 60 60 56 57 54 51 50 58 55 55 53 52 53 47 49 41 41 42 42 46 48 49 51 53 53 52 51 51
86 84 82 81 83 85 87 85 83 79 75 72 70 67 65 65 61 65 63 62 57 60 58 56 56 59 57 59 55 55 57 52 52 53 49 52 52 54 55 52 54 59 61 61
83 83 83 86 85 84 84 81 82 82 80 74 70 68 67 67 69 69 70 68 64 65 66 64 64 59 61 61 61 61 60 60 56 60 55 57 55 52 55 57 59 61 64 67
90 91 90 90 90 91 89 89 88 86 87 85 81 78 78 74 75 77 76 74 73 71 71 68 67 67 64 65 64 64 66 66 65 62 63 61 63 64 65 63 65 65 69 74
96 96 96 95 93 96 97 96 93 91 94 91 92 90 86 84 83 83 82 82 83 77 77 75 75 74 73 70 71 72 71 69 72 72 71 70 70 71 76 74 75 76 76 78
88 92 94 95 93 95 98 102 103 102 100 97 96 98 97 96 96 94 93 91 89 88 87 84 82 81 82 79 81 81 80 78 79 81 80 80 81 83 83 86 81 82 81 83
79 82 83 82 80 80 82 85 85 88 89 87 88 94 96 95 97 101 105 107 105 102 101 98 93 90 89 86 84 84 84 83 84 83 84 85 86 89 92 89 88 88 87 89
74 76 78 77 76 73 74 77 80 81 81 79 75 77 79 83 81 84 87 91 95 98 98 96 95 91 89 90 89 89 90 89 90 89 89 91 89 90 93 92 93 93 93 94
65 69 69 69 69 66 65 66 70 72 74 71 70 70 73 76 75 75 79 81 86 88 92 92 92 97 92 92 90 96 92 96 96 94 96 94 96 95 96 92 96 98 99 100
60 63 61 63 62 61 60 60 64 65 65 64 65 65 68 72 68 68 71 79 81 82 84 88 91 94 94 95 97 98 100 102 103 103 99 95 96 97 99 100 99 101 100 99
59 59 57 53 50 50 50 55 57 61 60 58 60 62 66 68 67 64 65 70 76 80 83 85 86 87 89 92 96 98 101 101 101 103 103 102 102 100 100 101 102 103 102 101
58 54 50 49 49 51 49 53 55 56 55 55 57 57 61 62 64 62 64 64 67 74 75 79 83 82 83 85 87 92 95 95 98 100 101 100 95 96 100 102 102 102 101 102
43 38 41 42 45 50 53 57 54 50 50 51 49 51 53 56 57 58 62 65 67 67 68 73 77 76 81 84 85 87 89 92 95 96 97 99 100 103 103 103 102 102 105 105
37 39 40 40 40 43 47 50 49 49 50 51 51 52 52 54 55 58 61 67 70 72 72 69 72 74 76 79 82 85 87 90 93 95 98 100 102 104 105 106 105 105 106 106
34 34 34 36 37 39 42 46 47 48 49 51 51 52 53 54 56 57 61 63 65 67 70 75 75 75 76 79 82 86 91 93 95 97 99 99 100 103 105 107 107 106 104 103
25 25 28 31 35 38 41 42 44 45 45 45 45 47 50 52 56 59 61 64 66 69 70 73 76 77 77 79 84 88 91 92 93 98 100 102 103 103 105 106 107 107 107 107
23 26 28 30 32 34 36 38 40 43 45 47 49 50 51 52 53 55 59 63 66 68 72 76 76 76 78 81 85 88 91 93 95 98 100 102 101 100 102 103 101 101 102 102
24 25 27 30 33 35 37 37 39 41 43 45 46 48 50 53 55 57 59 61 62 65 69 73 76 78 80 83 86 88 90 91 92 94 94 94 95 94 94 94 94 97 99 102
22 24 26 28 30 32 34 36 38 41 42 41 44 47 49 50 52 54 56 58 60 62 63 66 69 73 76 79 81 84 86 87 88 88 89 90 91 92 94 96 98 99 102 104
22 24 27 29 31 33 34 35 37 38 39 41 43 46 48 51 53 55 57 59 61 63 65 68 71 74 76 78 80 82 83 84 85 87 90 92 94 96 97 98 98 96 96 94
20 23 26 29 32 34 37 39 41 44 46 48 50 52 53 55 56 58 59 61 62 64 66 69 71 73 75 78 80 83 85 88 90 92 93 92 92 91 91 91 90 89 88 86
27 31 34 38 41 44 46 48 50 52 54 55 57 58 59 60 60 61 62 64 66 68 70 73 75 78 80 82 83 84 85 86 86 86 86 85 84 83 82 82 82 82 81 80
38 41 43 46 48 50 51 53 55 56 57 58 59 61 62 63 65 66 68 69 71 73 74 76 76 77 78 78 79 79 79 79 79 79 79 79 79 79 78 78 78 77 76 76

GFSNGP_250_spd_063.txt.gz
Wind_Speed
72 67 64 61 59 61 62 59 58 60 60 61 65 61 62 60 57 55 50 45 42 42 42 42 36 38 37 37 33 33 39 40 36 32 31 28 26 24 24 23 25 25 27 29
75 70 69 66 65 64 64 64 64 62 64 62 60 64 63 63 63 57 48 45 48 47 47 44 41 41 43 44 43 40 35 42 40 39 36 35 33 29 32 34 32 30 31 32
75 75 67 64 65 61 63 64 63 66 68 65 62 65 66 66 64 57 51 52 50 47 48 48 47 48 47 49 48 47 44 39 42 44 42 40 38 37 40 38 38 40 41 42
77 70 67 68 64 69 65 66 66 67 66 65 65 67 71 65 68 66 60 57 56 55 55 54 54 54 54 54 53 52 49 52 44 44 45 48 49 47 45 44 46 46 47 45
82 78 77 69 69 69 69 71 69 66 63 62 63 67 69 64 70 70 68 60 59 62 67 66 65 64 63 61 57 55 56 55 52 50 50 49 50 54 55 55 55 55 54 53
81 81 78 84 75 77 78 78 71 69 68 69 68 69 67 64 68 70 69 70 68 67 69 71 70 68 64 66 65 60 62 60 59 56 57 58 59 56 57 59 59 59 58 60
83 85 83 80 78 83 90 88 78 81 80 78 76 74 76 73 74 76 77 77 77 76 77 78 76 74 74 69 69 70 69 67 66 65 63 61 63 61 63 64 64 65 67 71
89 83 85 85 85 84 84 85 85 83 84 86 89 88 86 84 83 83 82 81 80 78 80 80 79 79 77 76 74 73 73 72 69 68 69 69 69 67 68 68 69 72 74 74
91 90 86 87 91 92 89 88 88 86 86 86 87 88 88 88 88 89 90 89 87 85 85 82 80 80 79 79 80 80 77 75 74 73 75 76 75 76 75 75 77 79 80 80
89 94 93 92 91 94 95 93 91 92 92 91 91 93 93 91 91 91 90 88 90 88 85 86 86 84 86 87 84 83 80 78 77 77 81 83 84 85 85 85 83 83 83 85
90 87 93 95 93 92 91 92 94 98 98 94 87 87 87 87 90 91 91 91 93 92 91 89 90 93 88 83 85 87 89 88 86 85 87 88 89 89 90 90 92 92 92 96
97 95 94 95 97 98 97 97 96 95 95 95 97 99 99 100 101 101 101 101 101 101 98 96 94 92 93 91 94 96 95 95 96 100 97 96 97 100 100 101 103 104 107 110
88 94 96 95 96 96 95 96 96 96 97 97 98 98 100 101 101 100 99 99 98 98 97 95 95 96 99 100 102 104 110 110 109 106 104 101 104 111 111 113 115 114 112 111
75 81 86 91 94 95 96 98 99 99 99 99 97 97 96 94 94 90 88 90 92 90 88 84 83 84 84 87 90 94 97 104 111 108 97 99 103 101 98 101 104 101 99 97
69 71 74 78 82 86 88 89 90 89 90 92 92 92 91 88 84 82 81 83 87 87 82 80 78 78 75 77 81 84 88 94 99 98 94 99 100 99 101 104 103 101 104 105
66 69 71 73 76 78 81 83 83 84 85 86 86 84 83 83 80 78 79 79 81 81 75 75 75 74 72 73 74 75 80 85 88 87 90 87 90 97 100 103 104 104 105 108
62 65 66 69 71 74 75 77 78 78 79 78 75 73 74 75 71 68 70 68 70 68 62 61 63 65 65 68 68 70 75 80 84 87 87 87 90 94 95 97 103 100 100 102
58 60 62 64 67 67 67 66 67 66 64 63 63 64 65 67 67 66 65 65 65 64 60 57 58 60 63 66 67 70 74 78 81 87 91 93 96 98 102 100 104 102 100 101
53 55 57 58 56 54 56 56 57 56 57 57 57 58 57 58 59 59 59 61 63 64 62 60 60 60 61 63 67 69 71 75 78 84 88 90 93 96 100 103 106 108 105 105
52 51 51 51 54 55 55 53 52 50 49 49 49 49 48 48 49 51 53 54 55 56 56 58 60 62 64 65 68 69 71 73 76 79 82 85 89 93 95 96 98 102 104 105
51 49 48 47 47 46 45 44 44 44 43 42 41 41 40 40 41 42 44 47 50 54 57 59 62 63 65 67 69 70 72 74 77 80 82 84 85 88 91 94 96 97 99 100
39 38 38 37 36 35 35 36 38 39 39 39 40 41 42 44 46 48 50 52 54 56 58 59 61 62 63 66 68 69 71 72 74 76 79 82 83 86 87 89 91 92 94 95
27 26 25 26 28 29 32 34 36 38 39 42 43 44 46 47 47 48 50 52 53 54 55 56 57 59 60 61 62 64 66 68 70 72 74 77 79 82 84 87 89 91 93 94
21 23 25 28 30 32 34 35 37 38 39 41 42 43 45 46 48 50 51 53 55 57 59 61 63 65 67 68 70 72 73 75 77 78 80 81 83 84 86 87 88 89 90 91
22 25 27 28 30 32 35 36 38 40 41 43 46 49 51 54 56 58 60 62 64 65 67 68 69 70 71 72 73 74 75 76 77 79 80 81 82 84 84 86 86 86 86 86
26 28 30 32 34 35 38 40 43 45 48 51 54 57 59 61 62 64 66 67 68 69 70 70 70 70 71 72 73 73 74 75 75 76 76 76 76 76 77 77 77 77 77 77
31 33 35 38 41 44 47 50 53 56 58 60 61 62 63 64 65 65 65 65 65 64 65 65 65 66 66 67 67 67 67 68 68 69 69 70 70 70 71 71 71 71 72 72

GFSNGP_250_spd_069.txt.gz
Wind_Speed
71 69 62 52 59 54 54 59 52 51 50 49 47 49 53 48 43 39 46 46 47 44 44 43 43 41 39 34 35 35 34 36 40 40 38 37 36 35 32 31 34 42 42 41
77 70 73 61 56 56 54 59 59 57 55 54 51 54 58 51 47 47 46 48 47 51 48 47 47 46 46 46 46 44 43 44 43 45 47 45 43 39 37 39 41 36 38 45
78 74 69 65 64 64 63 62 60 62 57 57 60 60 60 50 47 46 46 46 46 46 47 48 49 50 51 51 49 46 46 45 45 42 44 48 45 43 46 48 46 45 46 45
76 78 71 69 64 65 65 65 61 62 63 60 61 65 62 53 51 51 50 49 51 51 51 50 50 50 52 54 53 52 51 53 54 52 49 50 51 54 55 56 55 55 55 52
80 78 80 69 69 71 72 69 66 68 64 62 67 69 60 55 56 55 54 53 53 53 55 55 54 54 52 52 55 56 57 55 58 59 56 59 60 61 65 62 58 61 59 58
82 80 82 78 70 74 74 74 73 67 67 70 69 69 63 63 63 63 61 59 60 59 58 59 59 59 59 60 60 61 60 60 59 61 63 63 65 64 61 63 68 68 66 65
94 86 77 81 75 66 69 70 69 70 72 75 72 71 67 65 65 65 65 63 65 64 62 63 63 63 64 63 62 63 63 62 61 62 64 65 64 65 68 70 71 75 76 76
99 92 88 80 82 78 74 70 69 73 74 74 74 73 72 71 72 72 74 72 68 66 63 62 64 65 66 66 66 66 64 64 66 66 66 67 68 71 74 77 77 81 81 80
97 99 96 90 87 86 84 81 79 77 74 74 72 69 75 77 78 77 77 76 72 74 78 73 70 68 67 71 72 71 71 73 73 75 78 80 82 82 82 83 86 84 81 82
82 93 98 95 92 91 88 87 88 87 85 85 81 81 83 83 81 81 82 82 79 78 71 72 73 72 76 77 79 77 78 83 88 87 88 90 92 92 92 92 88 90 89 90
76 81 88 96 94 94 97 95 94 91 89 89 91 90 88 88 89 82 77 77 76 78 79 79 77 80 82 82 84 88 95 96 95 94 96 95 95 93 95 95 92 91 93 96
67 76 79 86 89 90 89 94 99 99 97 94 93 90 87 88 89 85 85 86 84 85 86 88 90 93 94 96 98 101 99 98 98 97 98 100 101 100 96 94 96 103 107 106
64 72 78 85 97 97 97 90 87 87 91 92 91 92 92 90 90 94 96 96 93 93 96 97 99 101 101 100 100 100 101 104 107 108 110 111 106 106 106 105 105 108 112 115
64 67 73 80 83 89 93 94 94 88 85 88 91 92 94 94 92 91 93 94 96 98 102 103 104 105 107 110 112 113 113 113 114 113 111 114 112 109 107 107 110 110 115 118
54 62 67 72 76 80 82 84 88 92 95 96 96 97 98 98 99 101 104 104 105 105 106 107 108 108 110 111 113 114 115 115 114 113 112 108 105 102 101 100 102 104 107 109
49 55 60 65 70 71 74 77 81 85 91 98 102 103 103 103 104 105 107 108 108 107 107 107 106 106 106 105 105 104 102 101 100 99 99 99 98 96 95 95 96 99 101 102
47 49 55 61 65 69 71 72 73 75 76 78 81 86 91 97 102 105 106 103 102 102 100 98 98 99 101 97 96 96 94 93 91 90 90 90 89 88 86 87 87 88 91 94
46 48 51 54 59 63 65 68 69 70 73 75 77 78 80 82 84 86 88 90 91 92 92 92 93 93 92 91 90 88 85 83 80 79 80 81 82 81 81 80 80 81 83 86
42 46 49 52 55 57 60 63 65 67 70 71 73 75 77 78 80 82 83 84 85 86 88 88 87 86 84 83 82 79 77 74 73 72 73 73 74 76 77 79 81 83 84 85
39 42 45 49 52 56 60 63 65 67 69 71 73 74 75 76 77 78 78 79 79 79 79 80 80 79 75 73 71 70 69 69 67 67 67 68 70 72 74 76 78 80 83 86
39 42 45 48 51 54 56 58 60 62 63 65 65 66 67 68 68 69 70 70 71 70 69 68 68 68 68 67 68 68 68 68 68 69 69 70 71 72 73 75 77 80 82 85
39 41 42 43 45 46 48 50 52 54 56 57 58 59 60 61 61 62 61 60 60 61 62 63 64 65 67 68 69 70 71 73 73 73 73 74 75 75 75 77 78 78 77 79
40 42 43 45 45 45 45 45 46 47 48 48 49 50 51 52 54 55 57 58 59 60 62 65 68 69 70 71 72 72 71 71 70 69 70 71 72 73 73 73 75 76 77 78
37 34 34 34 34 34 36 38 40 41 43 45 47 50 52 54 55 57 59 61 63 65 67 68 69 69 68 68 68 69 70 69 70 69 71 72 72 74 75 75 76 76 77 77
25 27 29 32 34 37 40 42 45 47 49 51 53 55 56 58 59 61 62 64 67 67 68 69 68 68 67 68 67 67 69 69 68 69 70 72 73 73 73 73 72 72 72 72
31 34 37 39 40 42 44 47 50 51 53 56 57 59 61 63 65 67 68 67 67 67 66 64 64 65 64 64 65 65 65 66 66 66 66 67 67 68 68 68 68 68 69 69
36 40 43 45 48 50 52 54 57 58 58 62 64 64 64 63 64 63 63 62 62 61 62 62 61 61 60 61 61 61 61 62 62 63 63 63 64 65 65 65 66 66 66 66

GFSNGP_250_spd_075.txt.gz
Wind_Speed
55 51 55 57 58 62 60 58 55 60 56 54 52 55 57 58 55 51 42 39 36 36 36 37 39 39 40 41 41 40 40 41 36 35 36 35 34 31 32 34 35 35 34 35
55 53 61 61 60 67 62 60 60 63 55 53 53 54 51 59 57 56 49 47 41 39 40 39 41 43 45 45 44 44 44 42 41 38 36 36 37 39 42 40 40 42 41 38
57 56 64 64 62 64 65 62 62 63 63 56 50 50 53 57 51 61 56 54 50 48 46 41 43 44 44 44 46 45 45 46 47 46 46 46 46 46 47 48 48 47 49 48
55 57 62 68 62 67 67 68 64 66 64 64 61 53 53 56 54 59 55 54 54 55 52 51 49 48 47 49 52 51 50 50 51 51 52 52 51 51 51 54 55 54 55 55
54 56 64 66 63 67 70 71 70 70 65 61 61 59 54 58 60 55 52 57 61 60 58 57 55 53 51 48 47 50 53 56 58 58 58 58 57 56 57 57 58 60 61 61
54 58 62 63 65 66 71 69 74 74 72 69 68 62 62 68 67 60 55 63 66 64 61 59 59 58 56 56 56 57 58 59 60 60 61 59 59 61 62 63 63 64 64 64
57 58 62 63 65 64 73 70 71 74 70 72 74 69 74 78 77 74 70 72 71 72 69 62 61 60 61 61 61 62 63 62 62 63 65 65 64 66 66 67 69 71 71 72
58 59 65 62 67 66 74 74 74 76 76 76 74 76 78 77 78 82 83 81 75 73 72 68 65 63 63 65 66 68 68 66 65 65 66 68 70 68 70 73 74 77 78 76
54 60 61 60 66 67 73 80 77 78 74 75 79 81 81 80 82 84 82 81 76 73 71 71 72 70 68 67 68 69 69 69 70 71 73 73 72 72 72 75 73 74 76 80
49 51 57 61 67 73 73 80 79 80 84 86 90 88 92 86 84 82 87 90 83 77 78 79 81 78 75 75 75 73 72 73 74 74 74 76 78 79 80 78 77 82 86 83
45 49 57 62 64 77 76 77 81 83 90 93 90 89 89 90 81 79 79 81 82 83 82 80 79 78 77 76 77 76 78 79 80 82 83 83 85 84 84 85 87 89 89 86
47 50 57 59 63 81 84 82 84 89 90 88 92 90 89 85 82 82 82 82 86 90 91 88 86 86 85 82 81 82 85 86 85 84 85 87 89 91 93 96 96 98 92 90
48 50 54 58 66 74 87 87 87 85 88 91 84 88 89 87 88 87 86 86 89 90 88 89 91 91 89 87 87 88 88 89 89 92 97 98 98 100 101 104 106 99 94 97
50 53 54 58 61 68 80 91 88 86 89 87 88 86 92 90 87 91 92 90 88 87 88 89 90 90 89 90 93 95 98 100 103 104 104 105 108 108 106 101 100 101 105 108
44 48 53 57 60 64 68 75 92 93 90 88 88 90 92 94 95 95 94 94 95 98 98 96 95 96 97 100 104 105 105 104 106 108 108 106 106 106 107 107 108 111 111 111
40 42 46 50 55 58 62 65 72 83 95 98 92 92 92 92 91 91 92 94 95 95 96 99 101 104 106 108 107 107 109 112 111 108 108 108 109 111 112 114 116 115 112 112
35 37 39 42 46 51 56 59 60 63 69 78 86 96 106 102 98 98 99 101 103 103 104 106 108 110 113 114 114 114 114 114 113 114 114 114 114 113 115 112 105 100 101 100
27 29 32 36 40 43 46 49 55 60 64 67 69 73 79 86 94 102 107 111 114 115 116 117 117 117 117 116 115 114 113 113 111 108 107 105 103 101 101 100 99 99 99 96
30 33 35 37 38 40 43 48 51 54 57 61 64 68 72 75 77 80 83 86 89 92 94 96 97 98 98 98 98 99 99 100 101 100 100 100 99 98 97 96 93 91 90 89
31 33 34 35 36 39 42 44 47 51 54 56 60 63 67 70 72 74 76 78 80 82 84 86 88 89 91 92 93 94 94 95 95 95 95 93 91 89 88 88 86 83 80 79
28 29 31 34 35 37 40 43 46 49 50 52 55 58 60 63 65 67 70 72 74 76 78 80 82 83 84 85 86 86 86 85 86 86 85 82 80 78 77 77 77 77 77 76
26 28 30 33 36 38 40 42 44 46 48 51 53 55 58 60 63 65 67 69 71 72 74 75 77 78 79 79 80 79 77 76 74 74 74 75 75 75 74 74 74 74 75 75
27 29 31 33 37 40 41 43 45 48 51 54 56 58 59 60 62 64 65 65 66 66 66 66 67 68 68 69 70 71 72 73 73 73 73 73 73 73 73 74 75 76 77 78
29 32 33 35 39 41 42 44 45 47 48 49 50 51 52 54 56 57 58 60 61 62 63 64 65 66 67 68 69 70 70 71 71 72 72 72 73 73 74 75 75 76 76 77
28 30 32 34 36 38 40 42 44 46 48 50 51 52 53 54 55 56 59 61 62 64 65 66 66 66 66 68 69 68 68 68 69 69 70 71 71 71 71 71 71 71 70 69
31 33 36 39 41 43 46 48 50 51 52 53 54 55 56 57 59 60 61 61 61 62 63 63 64 65 65 65 65 65 66 66 66 66 66 67 67 66 66 66 67 67 67 67
39 42 44 46 48 49 51 53 54 55 56 56 57 58 59 60 61 61 62 63 62 62 61 60 60 60 61 61 62 61 61 62 62 62 63 63 64 64 65 66 66 66 66 66

GFSNGP_250_spd_081.txt.gz
Wind_Speed
69 72 70 67 66 63 58 49 45 38 37 42 49 61 62 56 52 54 58 55 54 56 53 51 48 46 45 44 43 41 37 36 36 36 36 37 39 41 41 40 38 37 39 40
60 60 63 67 65 64 60 55 54 36 45 44 53 59 61 56 51 50 52 52 56 54 54 53 50 48 49 48 47 46 43 41 42 42 42 43 42 39 38 36 38 41 42 42
49 49 53 56 56 60 66 64 60 45 50 48 54 60 62 56 51 48 51 51 51 53 56 53 54 52 52 51 50 49 47 48 50 50 48 46 46 44 42 43 45 45 45 45
44 51 50 51 54 55 59 57 44 53 58 52 52 59 66 59 54 49 47 50 52 51 51 56 59 58 57 55 54 54 53 51 52 54 54 53 51 50 49 49 49 48 49 49
46 49 50 51 51 50 55 51 50 56 62 54 55 63 65 59 61 55 58 55 52 53 53 53 55 55 57 58 59 58 55 58 49 49 60 52 50 50 53 53 53 53 53 53
48 46 52 51 49 49 55 55 55 59 66 59 57 60 65 64 60 56 54 60 58 54 52 53 52 54 56 56 55 54 55 56 55 57 56 56 54 55 58 60 60 61 61 62
49 48 53 52 51 53 55 58 59 63 67 61 58 62 59 64 63 63 58 59 60 61 56 53 52 54 57 58 59 57 57 59 60 59 60 64 65 64 64 65 66 67 69 70
51 50 54 51 52 53 56 60 61 64 68 66 59 57 57 60 60 63 64 64 64 65 65 66 65 63 59 61 63 65 65 66 66 66 67 69 71 72 72 73 73 73 74 75
46 48 51 48 50 52 56 60 62 67 67 70 66 65 62 63 66 64 65 65 66 68 68 69 69 69 69 69 72 72 72 76 75 75 76 76 77 77 78 76 76 76 77 76
46 48 48 47 49 52 57 60 60 67 68 75 75 72 71 71 72 72 70 71 69 71 71 71 73 74 79 75 75 75 76 79 81 85 81 83 80 78 78 78 80 84 83 85
46 48 48 46 49 51 57 61 60 68 71 82 79 78 80 76 77 75 76 76 75 75 75 75 76 77 79 79 80 80 77 79 83 79 80 76 81 84 83 87 89 91 91 91
47 47 47 46 48 51 53 60 63 70 74 82 87 85 83 83 82 80 83 81 80 79 78 79 80 81 79 80 80 80 82 84 87 86 84 87 90 90 91 93 95 98 101 99
46 47 46 46 47 51 54 58 64 70 77 85 90 93 91 90 90 89 86 86 88 89 89 88 91 91 89 88 87 87 87 86 88 89 92 96 99 102 103 105 105 105 102 101
48 47 44 44 45 51 55 56 61 68 76 81 91 94 93 91 92 93 94 95 96 97 96 98 100 100 98 96 95 94 95 97 100 102 104 108 110 108 108 108 109 109 110 108
45 45 45 44 44 48 55 57 59 64 72 80 85 89 95 96 95 97 99 100 100 101 102 102 103 104 103 101 101 102 103 105 108 108 108 108 108 109 111 112 112 113 113 113
39 41 42 41 42 44 49 55 59 62 67 74 81 85 92 95 98 101 103 103 104 103 105 107 105 106 108 109 110 111 113 113 113 114 115 114 117 119 119 119 119 119 119 120
34 35 35 36 38 42 46 50 55 60 65 71 76 78 84 92 100 102 103 107 109 110 110 108 108 110 111 111 111 112 112 112 114 117 119 119 118 118 118 120 121 119 119 120
32 33 32 32 34 37 42 47 50 56 61 66 73 77 81 83 87 92 98 104 109 111 111 112 113 114 115 115 115 117 119 119 120 121 121 122 121 120 119 117 115 115 115 115
27 30 32 34 35 38 42 48 51 53 56 60 63 69 76 81 86 89 90 91 93 96 99 102 105 107 107 107 106 107 108 108 108 108 109 110 110 112 113 112 110 109 108 107
26 29 33 37 39 42 47 51 53 56 58 61 64 68 70 72 76 79 84 89 92 96 98 100 100 99 98 98 98 98 99 100 101 102 102 103 104 104 105 104 104 104 104 104
23 25 29 32 35 37 41 44 48 52 57 59 63 65 68 71 74 76 79 82 85 88 90 92 94 96 97 98 99 100 100 101 102 102 103 102 102 101 101 101 101 101 100 99
19 21 24 26 29 32 34 38 41 44 49 53 57 62 66 69 72 75 78 80 82 84 85 88 90 91 92 93 94 95 95 95 95 96 96 96 96 96 96 96 96 96 96 96
17 20 22 25 28 32 36 39 41 44 47 50 53 57 60 63 67 71 74 76 78 80 82 83 85 86 87 88 89 90 91 91 92 92 92 92 92 92 91 91 90 89 89 87
19 22 26 30 33 36 38 40 43 46 49 52 55 58 60 62 64 66 68 70 72 73 75 76 78 79 80 81 81 82 82 83 83 83 82 82 82 82 82 82 82 82 81 81
20 24 28 30 33 36 39 42 45 47 49 51 53 55 56 59 61 63 64 65 66 67 69 70 71 72 73 74 75 75 75 76 76 76 76 76 76 76 75 75 74 74 74 73
29 33 37 40 44 46 48 50 52 54 54 54 55 57 59 60 61 62 62 62 62 63 63 64 65 65 66 67 67 67 67 68 68 68 68 68 68 68 68 68 68 68 69 69
38 41 45 48 51 52 54 56 57 58 59 60 61 61 61 61 60 59 58 58 57 57 56 56 57 57 57 57 58 58 59 59 59 60 61 61 62 63 63 64 64 65 65 64